Time,TemperatureF,DewpointF,PressureIn,WindDirection,WindDirectionDegrees,WindSpeedMPH,WindSpeedGustMPH,Humidity,HourlyPrecipIn,Conditions,Clouds,dailyrainin,SolarRadiationWatts/m^2,SoftwareType,DateUTC
2013-09-05 00:01:00,66.7,57.4,30.06,WNW,296,1.0,1.0,72,0.00,,,0.00,0,Wunderground v.1.15,2013-09-05 04:01:00,
2013-09-05 00:02:00,66.7,57.4,30.06,WNW,301,1.0,1.0,72,0.00,,,0.00,0,Wunderground v.1.15,2013-09-05 04:02:00,
2013-09-05 00:03:00,66.6,57.7,30.06,West,279,1.0,2.0,73,0.00,,,0.00,0,Wunderground v.1.15,2013-09-05 04:03:00,
2013-09-05 00:05:00,66.6,57.7,30.06,WNW,301,1.0,2.0,73,0.00,,,0.00,0,Wunderground v.1.15,2013-09-05 04:05:00,
2013-09-05 00:08:00,66.5,57.6,30.06,WNW,300,1.0,2.0,73,0.00,,,0.00,0,Wunderground v.1.15,2013-09-05 04:08:00,
2013-09-05 00:14:00,66.4,57.5,30.05,West,261,1.0,1.0,73,0.00,,,0.00,0,Wunderground v.1.15,2013-09-05 04:14:00,
2013-09-05 00:16:00,66.3,57.8,30.05,West,264,1.0,3.0,74,0.00,,,0.00,0,Wunderground v.1.15,2013-09-05 04:16:00,
2013-09-05 00:19:00,66.2,57.7,30.05,NW,306,1.0,3.0,74,0.00,,,0.00,0,Wunderground v.1.15,2013-09-05 04:19:00,
2013-09-05 00:22:00,66.1,57.6,30.05,NW,306,1.0,2.0,74,0.00,,,0.00,0,Wunderground v.1.15,2013-09-05 04:22:00,
2013-09-05 00:24:00,66.1,57.6,30.05,NNW,330,1.0,2.0,74,0.00,,,0.00,0,Wunderground v.1.15,2013-09-05 04:24:00,
2013-09-05 00:26:00,66.0,57.5,30.05,NNW,330,1.0,2.0,74,0.00,,,0.00,0,Wunderground v.1.15,2013-09-05 04:26:00,
2013-09-05 00:28:00,65.8,57.7,30.05,NNW,329,1.0,2.0,75,0.00,,,0.00,0,Wunderground v.1.15,2013-09-05 04:28:00,
2013-09-05 00:29:00,65.8,57.7,30.05,NNW,329,1.0,2.0,75,0.00,,,0.00,0,Wunderground v.1.15,2013-09-05 04:29:00,
2013-09-05 00:32:00,65.7,57.6,30.05,NNW,329,1.0,1.0,75,0.00,,,0.00,0,Wunderground v.1.15,2013-09-05 04:32:00,
2013-09-05 00:33:00,65.7,57.6,30.05,NNW,329,1.0,1.0,75,0.00,,,0.00,0,Wunderground v.1.15,2013-09-05 04:33:00,
2013-09-05 00:35:00,65.5,57.7,30.05,North,360,1.0,3.0,76,0.00,,,0.00,0,Wunderground v.1.15,2013-09-05 04:35:00,
2013-09-05 00:38:00,65.4,57.6,30.05,North,355,1.0,3.0,76,0.00,,,0.00,0,Wunderground v.1.15,2013-09-05 04:38:00,
2013-09-05 00:39:00,65.4,57.6,30.05,North,355,1.0,3.0,76,0.00,,,0.00,0,Wunderground v.1.15,2013-09-05 04:39:00,
2013-09-05 00:41:00,65.3,57.5,30.05,North,355,1.0,1.0,76,0.00,,,0.00,0,Wunderground v.1.15,2013-09-05 04:41:00,
2013-09-05 00:43:00,65.3,57.5,30.05,North,355,1.0,1.0,76,0.00,,,0.00,0,Wunderground v.1.15,2013-09-05 04:43:00,
2013-09-05 00:44:00,65.2,57.4,30.05,North,355,1.0,1.0,76,0.00,,,0.00,0,Wunderground v.1.15,2013-09-05 04:44:00,
2013-09-05 00:45:00,65.2,57.4,30.05,West,279,1.0,1.0,76,0.00,,,0.00,0,Wunderground v.1.15,2013-09-05 04:45:00,
2013-09-05 00:47:00,65.2,57.4,30.05,West,279,1.0,1.0,76,0.00,,,0.00,0,Wunderground v.1.15,2013-09-05 04:47:00,
2013-09-05 00:48:00,65.2,57.4,30.05,NW,325,1.0,1.0,76,0.00,,,0.00,0,Wunderground v.1.15,2013-09-05 04:48:00,
2013-09-05 00:53:00,65.1,57.3,30.05,NW,309,1.0,1.0,76,0.00,,,0.00,0,Wunderground v.1.15,2013-09-05 04:53:00,
2013-09-05 00:54:00,65.1,57.3,30.05,NNW,336,1.0,1.0,76,0.00,,,0.00,0,Wunderground v.1.15,2013-09-05 04:54:00,
2013-09-05 00:55:00,65.1,57.3,30.05,NNW,336,1.0,1.0,76,0.00,,,0.00,0,Wunderground v.1.15,2013-09-05 04:55:00,
2013-09-05 00:56:00,65.1,57.3,30.05,NNW,331,1.0,1.0,76,0.00,,,0.00,0,Wunderground v.1.15,2013-09-05 04:56:00,
2013-09-05 00:59:00,65.0,57.6,30.05,NNW,338,1.0,2.0,77,0.00,,,0.00,0,Wunderground v.1.15,2013-09-05 04:59:00,
2013-09-05 01:02:00,65.0,57.6,30.05,NW,319,1.0,2.0,77,0.00,,,0.00,0,Wunderground v.1.15,2013-09-05 05:02:00,
2013-09-05 01:03:00,65.0,57.6,30.05,NW,319,1.0,2.0,77,0.00,,,0.00,0,Wunderground v.1.15,2013-09-05 05:03:00,
2013-09-05 01:05:00,65.0,57.6,30.05,WNW,303,1.0,3.0,77,0.00,,,0.00,0,Wunderground v.1.15,2013-09-05 05:05:00,
2013-09-05 01:07:00,65.0,57.6,30.05,NW,313,1.0,3.0,77,0.00,,,0.00,0,Wunderground v.1.15,2013-09-05 05:07:00,
2013-09-05 01:09:00,65.0,57.6,30.05,WNW,283,1.0,3.0,77,0.00,,,0.00,0,Wunderground v.1.15,2013-09-05 05:09:00,
2013-09-05 01:12:00,65.1,57.7,30.05,WNW,287,1.0,2.0,77,0.00,,,0.00,0,Wunderground v.1.15,2013-09-05 05:12:00,
2013-09-05 01:17:00,65.1,57.3,30.04,WNW,296,1.0,2.0,76,0.00,,,0.00,0,Wunderground v.1.15,2013-09-05 05:17:00,
2013-09-05 01:19:00,65.2,57.4,30.05,NW,306,1.0,2.0,76,0.00,,,0.00,0,Wunderground v.1.15,2013-09-05 05:19:00,
2013-09-05 01:20:00,65.2,57.4,30.04,NW,307,1.0,2.0,76,0.00,,,0.00,0,Wunderground v.1.15,2013-09-05 05:20:00,
2013-09-05 01:22:00,65.2,57.4,30.04,NNW,327,1.0,2.0,76,0.00,,,0.00,0,Wunderground v.1.15,2013-09-05 05:22:00,
2013-09-05 01:23:00,65.1,57.3,30.04,NW,319,1.0,2.0,76,0.00,,,0.00,0,Wunderground v.1.15,2013-09-05 05:23:00,
2013-09-05 01:27:00,65.1,57.3,30.04,NW,323,1.0,2.0,76,0.00,,,0.00,0,Wunderground v.1.15,2013-09-05 05:27:00,
2013-09-05 01:28:00,65.1,57.7,30.04,NW,323,1.0,2.0,77,0.00,,,0.00,0,Wunderground v.1.15,2013-09-05 05:28:00,
2013-09-05 01:29:00,65.1,57.7,30.04,WNW,292,1.0,2.0,77,0.00,,,0.00,0,Wunderground v.1.15,2013-09-05 05:29:00,
2013-09-05 01:32:00,65.0,57.6,30.04,WNW,292,1.0,1.0,77,0.00,,,0.00,0,Wunderground v.1.15,2013-09-05 05:32:00,
2013-09-05 01:34:00,65.0,57.6,30.04,WNW,292,1.0,1.0,77,0.00,,,0.00,0,Wunderground v.1.15,2013-09-05 05:34:00,
2013-09-05 01:35:00,65.0,57.6,30.04,WNW,292,0.0,1.0,77,0.00,,,0.00,0,Wunderground v.1.15,2013-09-05 05:35:00,
2013-09-05 01:36:00,65.0,57.6,30.04,WNW,292,0.0,1.0,77,0.00,,,0.00,0,Wunderground v.1.15,2013-09-05 05:36:00,
2013-09-05 01:37:00,64.9,57.5,30.04,WNW,292,0.0,1.0,77,0.00,,,0.00,0,Wunderground v.1.15,2013-09-05 05:37:00,
2013-09-05 01:38:00,64.9,57.5,30.04,WSW,254,1.0,1.0,77,0.00,,,0.00,0,Wunderground v.1.15,2013-09-05 05:38:00,
2013-09-05 01:40:00,64.9,57.5,30.04,WSW,254,0.0,1.0,77,0.00,,,0.00,0,Wunderground v.1.15,2013-09-05 05:40:00,
2013-09-05 01:43:00,64.9,57.5,30.04,WSW,254,1.0,1.0,77,0.00,,,0.00,0,Wunderground v.1.15,2013-09-05 05:43:00,
2013-09-05 01:47:00,64.8,57.4,30.04,WNW,302,1.0,2.0,77,0.00,,,0.00,0,Wunderground v.1.15,2013-09-05 05:47:00,
2013-09-05 01:49:00,64.8,57.4,30.04,WNW,299,1.0,2.0,77,0.00,,,0.00,0,Wunderground v.1.15,2013-09-05 05:49:00,
2013-09-05 01:52:00,64.8,57.4,30.04,West,266,1.0,1.0,77,0.00,,,0.00,0,Wunderground v.1.15,2013-09-05 05:52:00,
2013-09-05 01:54:00,64.8,57.4,30.04,West,266,1.0,1.0,77,0.00,,,0.00,0,Wunderground v.1.15,2013-09-05 05:54:00,
2013-09-05 01:55:00,64.8,57.4,30.04,NNW,333,1.0,2.0,77,0.00,,,0.00,0,Wunderground v.1.15,2013-09-05 05:55:00,
2013-09-05 02:00:00,64.8,57.4,30.04,SE,144,1.0,1.0,77,0.00,,,0.00,0,Wunderground v.1.15,2013-09-05 06:00:00,
2013-09-05 02:02:00,64.7,57.3,30.04,SE,144,1.0,1.0,77,0.00,,,0.00,0,Wunderground v.1.15,2013-09-05 06:02:00,
2013-09-05 02:06:00,64.6,57.6,30.04,WSW,240,1.0,2.0,78,0.00,,,0.00,0,Wunderground v.1.15,2013-09-05 06:06:00,
2013-09-05 02:12:00,64.6,57.6,30.04,West,273,1.0,2.0,78,0.00,,,0.00,0,Wunderground v.1.15,2013-09-05 06:12:00,
2013-09-05 02:14:00,64.5,57.5,30.04,WSW,241,1.0,2.0,78,0.00,,,0.00,0,Wunderground v.1.15,2013-09-05 06:14:00,
2013-09-05 02:15:00,64.5,57.5,30.04,West,275,1.0,4.0,78,0.00,,,0.00,0,Wunderground v.1.15,2013-09-05 06:15:00,
2013-09-05 02:19:00,64.5,57.5,30.04,WNW,294,1.0,4.0,78,0.00,,,0.00,0,Wunderground v.1.15,2013-09-05 06:19:00,
2013-09-05 02:22:00,64.4,57.4,30.04,WNW,286,2.0,2.0,78,0.00,,,0.00,0,Wunderground v.1.15,2013-09-05 06:22:00,
2013-09-05 02:25:00,64.3,57.3,30.04,WNW,286,2.0,2.0,78,0.00,,,0.00,0,Wunderground v.1.15,2013-09-05 06:25:00,
2013-09-05 02:26:00,64.4,57.4,30.04,West,281,2.0,2.0,78,0.00,,,0.00,0,Wunderground v.1.15,2013-09-05 06:26:00,
2013-09-05 02:28:00,64.3,57.3,30.04,WNW,295,2.0,2.0,78,0.00,,,0.00,0,Wunderground v.1.15,2013-09-05 06:28:00,
2013-09-05 02:32:00,64.3,57.3,30.04,West,262,2.0,2.0,78,0.00,,,0.00,0,Wunderground v.1.15,2013-09-05 06:32:00,
2013-09-05 02:33:00,64.3,57.3,30.04,WSW,249,2.0,2.0,78,0.00,,,0.00,0,Wunderground v.1.15,2013-09-05 06:33:00,
2013-09-05 02:34:00,64.3,57.3,30.04,West,267,1.0,2.0,78,0.00,,,0.00,0,Wunderground v.1.15,2013-09-05 06:34:00,
2013-09-05 02:39:00,64.3,57.3,30.04,West,270,1.0,2.0,78,0.00,,,0.00,0,Wunderground v.1.15,2013-09-05 06:39:00,
2013-09-05 02:40:00,64.2,57.2,30.04,WNW,289,1.0,2.0,78,0.00,,,0.00,0,Wunderground v.1.15,2013-09-05 06:40:00,
2013-09-05 02:42:00,64.2,57.2,30.04,WNW,289,1.0,2.0,78,0.00,,,0.00,0,Wunderground v.1.15,2013-09-05 06:42:00,
2013-09-05 02:46:00,64.2,57.2,30.03,NW,309,1.0,2.0,78,0.00,,,0.00,0,Wunderground v.1.15,2013-09-05 06:46:00,
2013-09-05 02:48:00,64.1,57.1,30.03,NW,309,1.0,2.0,78,0.00,,,0.00,0,Wunderground v.1.15,2013-09-05 06:48:00,
2013-09-05 02:49:00,64.1,57.1,30.03,NW,309,1.0,2.0,78,0.00,,,0.00,0,Wunderground v.1.15,2013-09-05 06:49:00,
2013-09-05 02:50:00,64.0,57.0,30.03,NW,309,1.0,1.0,78,0.00,,,0.00,0,Wunderground v.1.15,2013-09-05 06:50:00,
2013-09-05 02:54:00,63.8,57.2,30.03,NW,309,1.0,2.0,79,0.00,,,0.00,0,Wunderground v.1.15,2013-09-05 06:54:00,
2013-09-05 02:56:00,63.8,57.2,30.03,NW,309,1.0,2.0,79,0.00,,,0.00,0,Wunderground v.1.15,2013-09-05 06:56:00,
2013-09-05 02:57:00,63.7,57.1,30.03,NW,309,1.0,2.0,79,0.00,,,0.00,0,Wunderground v.1.15,2013-09-05 06:57:00,
2013-09-05 03:00:00,63.6,57.3,30.03,NW,313,1.0,1.0,80,0.00,,,0.00,0,Wunderground v.1.15,2013-09-05 07:00:00,
2013-09-05 03:02:00,63.5,57.2,30.03,NW,320,1.0,1.0,80,0.00,,,0.00,0,Wunderground v.1.15,2013-09-05 07:02:00,
2013-09-05 03:03:00,63.5,57.2,30.03,NW,320,1.0,1.0,80,0.00,,,0.00,0,Wunderground v.1.15,2013-09-05 07:03:00,
2013-09-05 03:06:00,63.4,57.1,30.03,WNW,284,1.0,3.0,80,0.00,,,0.00,0,Wunderground v.1.15,2013-09-05 07:06:00,
2013-09-05 03:09:00,63.4,57.1,30.03,WNW,290,1.0,3.0,80,0.00,,,0.00,0,Wunderground v.1.15,2013-09-05 07:09:00,
2013-09-05 03:12:00,63.5,57.2,30.03,WNW,297,1.0,3.0,80,0.00,,,0.00,0,Wunderground v.1.15,2013-09-05 07:12:00,
2013-09-05 03:13:00,63.5,57.2,30.03,WNW,297,1.0,3.0,80,0.00,,,0.00,0,Wunderground v.1.15,2013-09-05 07:13:00,
2013-09-05 03:16:00,63.5,57.2,30.03,WNW,298,1.0,3.0,80,0.00,,,0.00,0,Wunderground v.1.15,2013-09-05 07:16:00,
2013-09-05 03:19:00,63.4,57.1,30.03,NNW,336,1.0,3.0,80,0.00,,,0.00,0,Wunderground v.1.15,2013-09-05 07:19:00,
2013-09-05 03:20:00,63.3,57.0,30.03,NNW,336,1.0,1.0,80,0.00,,,0.00,0,Wunderground v.1.15,2013-09-05 07:20:00,
2013-09-05 03:23:00,63.3,57.0,30.03,NNW,336,1.0,1.0,80,0.00,,,0.00,0,Wunderground v.1.15,2013-09-05 07:23:00,
2013-09-05 03:24:00,63.2,56.9,30.03,NNW,336,1.0,1.0,80,0.00,,,0.00,0,Wunderground v.1.15,2013-09-05 07:24:00,
2013-09-05 03:26:00,63.2,56.9,30.03,NW,305,1.0,1.0,80,0.00,,,0.00,0,Wunderground v.1.15,2013-09-05 07:26:00,
2013-09-05 03:27:00,63.3,57.4,30.03,NW,305,1.0,1.0,81,0.00,,,0.00,0,Wunderground v.1.15,2013-09-05 07:27:00,
2013-09-05 03:28:00,63.2,56.9,30.03,WNW,292,1.0,2.0,80,0.00,,,0.00,0,Wunderground v.1.15,2013-09-05 07:28:00,
2013-09-05 03:30:00,63.2,56.9,30.03,WNW,292,1.0,1.0,80,0.00,,,0.00,0,Wunderground v.1.15,2013-09-05 07:30:00,
2013-09-05 03:32:00,63.2,56.9,30.03,WNW,292,1.0,1.0,80,0.00,,,0.00,0,Wunderground v.1.15,2013-09-05 07:32:00,
2013-09-05 03:34:00,63.2,57.3,30.03,WNW,285,1.0,2.0,81,0.00,,,0.00,0,Wunderground v.1.15,2013-09-05 07:34:00,
2013-09-05 03:35:00,63.2,57.3,30.03,WNW,284,1.0,2.0,81,0.00,,,0.00,0,Wunderground v.1.15,2013-09-05 07:35:00,
2013-09-05 03:40:00,63.2,57.3,30.03,WNW,292,1.0,1.0,81,0.00,,,0.00,0,Wunderground v.1.15,2013-09-05 07:40:00,
2013-09-05 03:41:00,63.2,57.3,30.03,WNW,298,1.0,1.0,81,0.00,,,0.00,0,Wunderground v.1.15,2013-09-05 07:41:00,
2013-09-05 03:42:00,63.2,57.3,30.03,NW,310,1.0,1.0,81,0.00,,,0.00,0,Wunderground v.1.15,2013-09-05 07:42:00,
2013-09-05 03:45:00,63.1,57.2,30.03,WNW,294,1.0,2.0,81,0.00,,,0.00,0,Wunderground v.1.15,2013-09-05 07:45:00,
2013-09-05 03:47:00,63.1,57.2,30.03,NNW,329,1.0,2.0,81,0.00,,,0.00,0,Wunderground v.1.15,2013-09-05 07:47:00,
2013-09-05 03:48:00,63.1,57.2,30.03,NW,312,1.0,2.0,81,0.00,,,0.00,0,Wunderground v.1.15,2013-09-05 07:48:00,
2013-09-05 03:50:00,63.1,57.2,30.03,NW,321,1.0,1.0,81,0.00,,,0.00,0,Wunderground v.1.15,2013-09-05 07:50:00,
2013-09-05 03:54:00,62.9,57.3,30.03,NE,40,1.0,2.0,82,0.00,,,0.00,0,Wunderground v.1.15,2013-09-05 07:54:00,
2013-09-05 03:56:00,62.9,57.3,30.03,WNW,301,1.0,2.0,82,0.00,,,0.00,0,Wunderground v.1.15,2013-09-05 07:56:00,
2013-09-05 03:59:00,62.9,57.3,30.03,NW,321,1.0,2.0,82,0.00,,,0.00,0,Wunderground v.1.15,2013-09-05 07:59:00,
2013-09-05 04:02:00,62.8,57.2,30.03,NNW,331,1.0,1.0,82,0.00,,,0.00,0,Wunderground v.1.15,2013-09-05 08:02:00,
2013-09-05 04:04:00,62.7,57.1,30.03,NNW,331,1.0,1.0,82,0.00,,,0.00,0,Wunderground v.1.15,2013-09-05 08:04:00,
2013-09-05 04:06:00,62.6,57.4,30.03,NW,306,1.0,2.0,83,0.00,,,0.00,0,Wunderground v.1.15,2013-09-05 08:06:00,
2013-09-05 04:08:00,62.6,57.4,30.03,WNW,298,1.0,2.0,83,0.00,,,0.00,0,Wunderground v.1.15,2013-09-05 08:08:00,
2013-09-05 04:09:00,62.6,57.4,30.03,WNW,298,1.0,1.0,83,0.00,,,0.00,0,Wunderground v.1.15,2013-09-05 08:09:00,
2013-09-05 04:14:00,62.6,57.4,30.02,WNW,284,1.0,4.0,83,0.00,,,0.00,0,Wunderground v.1.15,2013-09-05 08:14:00,
2013-09-05 04:15:00,62.6,57.4,30.02,WNW,289,1.0,4.0,83,0.00,,,0.00,0,Wunderground v.1.15,2013-09-05 08:15:00,
2013-09-05 04:17:00,62.6,57.4,30.02,WNW,298,1.0,4.0,83,0.00,,,0.00,0,Wunderground v.1.15,2013-09-05 08:17:00,
2013-09-05 04:21:00,62.5,57.3,30.02,NW,306,1.0,2.0,83,0.00,,,0.00,0,Wunderground v.1.15,2013-09-05 08:21:00,
2013-09-05 04:23:00,62.4,57.2,30.02,WNW,302,1.0,2.0,83,0.00,,,0.00,0,Wunderground v.1.15,2013-09-05 08:23:00,
2013-09-05 04:24:00,62.4,57.2,30.02,WNW,301,1.0,2.0,83,0.00,,,0.00,0,Wunderground v.1.15,2013-09-05 08:24:00,
2013-09-05 04:26:00,62.4,57.5,30.02,NW,312,1.0,2.0,84,0.00,,,0.00,0,Wunderground v.1.15,2013-09-05 08:26:00,
2013-09-05 04:28:00,62.3,57.4,30.02,NW,312,1.0,2.0,84,0.00,,,0.00,0,Wunderground v.1.15,2013-09-05 08:28:00,
2013-09-05 04:29:00,62.3,57.4,30.03,WNW,302,1.0,1.0,84,0.00,,,0.00,0,Wunderground v.1.15,2013-09-05 08:29:00,
2013-09-05 04:31:00,62.3,57.4,30.02,WNW,302,1.0,1.0,84,0.00,,,0.00,0,Wunderground v.1.15,2013-09-05 08:31:00,
2013-09-05 04:33:00,62.2,57.3,30.03,NNW,327,1.0,1.0,84,0.00,,,0.00,0,Wunderground v.1.15,2013-09-05 08:33:00,
2013-09-05 04:35:00,62.2,57.3,30.03,NW,305,1.0,1.0,84,0.00,,,0.00,0,Wunderground v.1.15,2013-09-05 08:35:00,
2013-09-05 04:37:00,62.2,57.3,30.03,NNW,342,1.0,2.0,84,0.00,,,0.00,0,Wunderground v.1.15,2013-09-05 08:37:00,
2013-09-05 04:38:00,62.3,57.4,30.03,WNW,296,1.0,2.0,84,0.00,,,0.00,0,Wunderground v.1.15,2013-09-05 08:38:00,
2013-09-05 04:41:00,62.3,57.4,30.03,WNW,296,1.0,1.0,84,0.00,,,0.00,0,Wunderground v.1.15,2013-09-05 08:41:00,
2013-09-05 04:43:00,62.3,57.4,30.03,NW,319,1.0,2.0,84,0.00,,,0.00,0,Wunderground v.1.15,2013-09-05 08:43:00,
2013-09-05 04:49:00,62.3,57.4,30.03,NW,319,1.0,2.0,84,0.00,,,0.00,0,Wunderground v.1.15,2013-09-05 08:49:00,
2013-09-05 04:52:00,62.3,57.4,30.03,NW,304,1.0,1.0,84,0.00,,,0.00,0,Wunderground v.1.15,2013-09-05 08:52:00,
2013-09-05 04:55:00,62.4,57.5,30.03,WNW,302,1.0,1.0,84,0.00,,,0.00,0,Wunderground v.1.15,2013-09-05 08:55:00,
2013-09-05 04:59:00,62.5,57.6,30.03,WNW,289,1.0,1.0,84,0.00,,,0.00,0,Wunderground v.1.15,2013-09-05 08:59:00,
2013-09-05 05:00:00,62.5,57.6,30.03,WNW,284,1.0,1.0,84,0.00,,,0.00,0,Wunderground v.1.15,2013-09-05 09:00:00,
2013-09-05 05:03:00,62.6,57.4,30.03,WNW,302,1.0,1.0,83,0.00,,,0.00,0,Wunderground v.1.15,2013-09-05 09:03:00,
2013-09-05 05:07:00,62.6,57.4,30.03,NW,312,1.0,1.0,83,0.00,,,0.00,0,Wunderground v.1.15,2013-09-05 09:07:00,
2013-09-05 05:09:00,62.7,57.5,30.03,WNW,296,1.0,2.0,83,0.00,,,0.00,0,Wunderground v.1.15,2013-09-05 09:09:00,
2013-09-05 05:11:00,62.7,57.5,30.03,WNW,296,1.0,1.0,83,0.00,,,0.00,0,Wunderground v.1.15,2013-09-05 09:11:00,
2013-09-05 05:12:00,62.7,57.5,30.03,WNW,296,1.0,1.0,83,0.00,,,0.00,0,Wunderground v.1.15,2013-09-05 09:12:00,
2013-09-05 05:14:00,62.8,57.6,30.03,North,360,1.0,1.0,83,0.00,,,0.00,0,Wunderground v.1.15,2013-09-05 09:14:00,
2013-09-05 05:16:00,62.7,57.5,30.03,NE,56,1.0,1.0,83,0.00,,,0.00,0,Wunderground v.1.15,2013-09-05 09:16:00,
2013-09-05 05:17:00,62.8,57.6,30.03,North,355,1.0,1.0,83,0.00,,,0.00,0,Wunderground v.1.15,2013-09-05 09:17:00,
2013-09-05 05:19:00,62.7,57.5,30.03,North,355,1.0,1.0,83,0.00,,,0.00,0,Wunderground v.1.15,2013-09-05 09:19:00,
2013-09-05 05:22:00,62.8,57.6,30.03,NW,310,1.0,1.0,83,0.00,,,0.00,0,Wunderground v.1.15,2013-09-05 09:22:00,
2013-09-05 05:23:00,62.8,57.6,30.03,NW,310,1.0,1.0,83,0.00,,,0.00,0,Wunderground v.1.15,2013-09-05 09:23:00,
2013-09-05 05:26:00,62.8,57.6,30.03,NW,305,1.0,2.0,83,0.00,,,0.00,0,Wunderground v.1.15,2013-09-05 09:26:00,
2013-09-05 05:27:00,62.8,57.6,30.03,NW,305,1.0,2.0,83,0.00,,,0.00,0,Wunderground v.1.15,2013-09-05 09:27:00,
2013-09-05 05:28:00,62.8,57.6,30.03,WSW,240,1.0,2.0,83,0.00,,,0.00,0,Wunderground v.1.15,2013-09-05 09:28:00,
2013-09-05 05:29:00,62.8,57.6,30.03,WSW,258,1.0,2.0,83,0.00,,,0.00,0,Wunderground v.1.15,2013-09-05 09:29:00,
2013-09-05 05:31:00,62.8,57.6,30.03,NW,308,1.0,1.0,83,0.00,,,0.00,0,Wunderground v.1.15,2013-09-05 09:31:00,
2013-09-05 05:33:00,62.7,57.5,30.03,NW,306,1.0,1.0,83,0.00,,,0.00,0,Wunderground v.1.15,2013-09-05 09:33:00,
2013-09-05 05:36:00,62.7,57.5,30.03,NNW,336,1.0,1.0,83,0.00,,,0.00,0,Wunderground v.1.15,2013-09-05 09:36:00,
2013-09-05 05:37:00,62.7,57.5,30.03,NNW,336,1.0,1.0,83,0.00,,,0.00,0,Wunderground v.1.15,2013-09-05 09:37:00,
2013-09-05 05:40:00,62.6,57.4,30.03,NNW,336,1.0,1.0,83,0.00,,,0.00,0,Wunderground v.1.15,2013-09-05 09:40:00,
2013-09-05 05:41:00,62.6,57.4,30.04,NW,304,1.0,2.0,83,0.00,,,0.00,0,Wunderground v.1.15,2013-09-05 09:41:00,
2013-09-05 05:42:00,62.5,57.3,30.03,WNW,300,1.0,2.0,83,0.00,,,0.00,0,Wunderground v.1.15,2013-09-05 09:42:00,
2013-09-05 05:44:00,62.5,57.3,30.03,WNW,300,1.0,2.0,83,0.00,,,0.00,0,Wunderground v.1.15,2013-09-05 09:44:00,
2013-09-05 05:47:00,62.5,57.3,30.03,NW,308,1.0,2.0,83,0.00,,,0.00,0,Wunderground v.1.15,2013-09-05 09:47:00,
2013-09-05 05:49:00,62.5,57.3,30.03,NNW,327,1.0,2.0,83,0.00,,,0.00,0,Wunderground v.1.15,2013-09-05 09:49:00,
2013-09-05 05:50:00,62.5,57.3,30.03,NW,304,1.0,2.0,83,0.00,,,0.00,0,Wunderground v.1.15,2013-09-05 09:50:00,
2013-09-05 05:53:00,62.5,57.3,30.03,NW,304,1.0,2.0,83,0.00,,,0.00,0,Wunderground v.1.15,2013-09-05 09:53:00,
2013-09-05 05:56:00,62.5,57.3,30.03,NW,304,1.0,2.0,83,0.00,,,0.00,0,Wunderground v.1.15,2013-09-05 09:56:00,
2013-09-05 06:00:00,62.4,57.5,30.03,NW,304,0.0,0.0,84,0.00,,,0.00,0,Wunderground v.1.15,2013-09-05 10:00:00,
2013-09-05 06:01:00,62.4,57.5,30.03,NNW,331,0.0,0.0,84,0.00,,,0.00,0,Wunderground v.1.15,2013-09-05 10:01:00,
2013-09-05 06:02:00,62.4,57.5,30.03,NW,312,0.0,0.0,84,0.00,,,0.00,0,Wunderground v.1.15,2013-09-05 10:02:00,
2013-09-05 06:06:00,62.2,57.3,30.04,NW,312,0.0,0.0,84,0.00,,,0.00,0,Wunderground v.1.15,2013-09-05 10:06:00,
2013-09-05 06:07:00,62.2,57.3,30.04,NW,304,0.0,0.0,84,0.00,,,0.00,0,Wunderground v.1.15,2013-09-05 10:07:00,
2013-09-05 06:08:00,62.2,57.3,30.04,WNW,294,0.0,0.0,84,0.00,,,0.00,0,Wunderground v.1.15,2013-09-05 10:08:00,
2013-09-05 06:09:00,62.2,57.3,30.04,WNW,294,0.0,0.0,84,0.00,,,0.00,0,Wunderground v.1.15,2013-09-05 10:09:00,
2013-09-05 06:12:00,62.1,57.2,30.04,NW,306,0.0,0.0,84,0.00,,,0.00,0,Wunderground v.1.15,2013-09-05 10:12:00,
2013-09-05 06:14:00,62.1,57.2,30.04,NW,306,0.0,0.0,84,0.00,,,0.00,0,Wunderground v.1.15,2013-09-05 10:14:00,
2013-09-05 06:16:00,62.1,57.5,30.04,NW,324,0.0,0.0,85,0.00,,,0.00,0,Wunderground v.1.15,2013-09-05 10:16:00,
2013-09-05 06:19:00,62.0,57.4,30.04,NW,324,0.0,0.0,85,0.00,,,0.00,0,Wunderground v.1.15,2013-09-05 10:19:00,
2013-09-05 06:20:00,62.0,57.4,30.04,NW,324,0.0,0.0,85,0.00,,,0.00,0,Wunderground v.1.15,2013-09-05 10:20:00,
2013-09-05 06:22:00,62.0,57.4,30.04,NW,324,0.0,0.0,85,0.00,,,0.00,0,Wunderground v.1.15,2013-09-05 10:22:00,
2013-09-05 06:23:00,62.0,57.4,30.04,NW,324,0.0,0.0,85,0.00,,,0.00,0,Wunderground v.1.15,2013-09-05 10:23:00,
2013-09-05 06:25:00,62.0,57.4,30.05,NW,324,0.0,0.0,85,0.00,,,0.00,0,Wunderground v.1.15,2013-09-05 10:25:00,
2013-09-05 06:29:00,61.9,57.3,30.05,NW,325,0.0,0.0,85,0.00,,,0.00,0,Wunderground v.1.15,2013-09-05 10:29:00,
2013-09-05 06:32:00,61.9,57.3,30.05,NNW,346,0.0,0.0,85,0.00,,,0.00,0,Wunderground v.1.15,2013-09-05 10:32:00,
2013-09-05 06:34:00,61.9,57.3,30.05,WNW,302,0.0,0.0,85,0.00,,,0.00,0,Wunderground v.1.15,2013-09-05 10:34:00,
2013-09-05 06:35:00,61.9,57.3,30.04,WNW,300,0.0,2.0,85,0.00,,,0.00,0,Wunderground v.1.15,2013-09-05 10:35:00,
2013-09-05 06:38:00,62.0,57.4,30.05,NNW,327,0.0,2.0,85,0.00,,,0.00,0,Wunderground v.1.15,2013-09-05 10:38:00,
2013-09-05 06:42:00,62.1,57.5,30.05,WNW,288,1.0,3.0,85,0.00,,,0.00,5,Wunderground v.1.15,2013-09-05 10:42:00,
2013-09-05 06:43:00,62.2,57.6,30.05,West,281,1.0,3.0,85,0.00,,,0.00,7,Wunderground v.1.15,2013-09-05 10:43:00,
2013-09-05 06:46:00,62.2,57.6,30.05,WNW,300,1.0,3.0,85,0.00,,,0.00,9,Wunderground v.1.15,2013-09-05 10:46:00,
2013-09-05 06:49:00,62.3,57.7,30.05,WNW,300,1.0,3.0,85,0.00,,,0.00,11,Wunderground v.1.15,2013-09-05 10:49:00,
2013-09-05 06:51:00,62.3,57.7,30.06,WNW,300,1.0,1.0,85,0.00,,,0.00,11,Wunderground v.1.15,2013-09-05 10:51:00,
2013-09-05 06:53:00,62.3,57.7,30.06,WNW,300,1.0,1.0,85,0.00,,,0.00,12,Wunderground v.1.15,2013-09-05 10:53:00,
2013-09-05 06:54:00,62.3,57.7,30.06,WNW,300,0.0,1.0,85,0.00,,,0.00,14,Wunderground v.1.15,2013-09-05 10:54:00,
2013-09-05 06:55:00,62.3,57.7,30.06,WNW,300,0.0,1.0,85,0.00,,,0.00,16,Wunderground v.1.15,2013-09-05 10:55:00,
2013-09-05 06:58:00,62.2,57.6,30.06,WNW,300,0.0,1.0,85,0.00,,,0.00,19,Wunderground v.1.15,2013-09-05 10:58:00,
2013-09-05 07:00:00,62.2,57.6,30.06,WNW,300,0.0,0.0,85,0.00,,,0.00,21,Wunderground v.1.15,2013-09-05 11:00:00,
2013-09-05 07:01:00,62.2,57.6,30.06,WNW,300,0.0,0.0,85,0.00,,,0.00,23,Wunderground v.1.15,2013-09-05 11:01:00,
2013-09-05 07:02:00,62.2,57.6,30.06,WNW,300,0.0,0.0,85,0.00,,,0.00,23,Wunderground v.1.15,2013-09-05 11:02:00,
2013-09-05 07:04:00,62.2,57.3,30.06,WNW,300,0.0,0.0,84,0.00,,,0.00,26,Wunderground v.1.15,2013-09-05 11:04:00,
2013-09-05 07:06:00,62.2,57.6,30.06,WNW,300,0.0,1.0,85,0.00,,,0.00,30,Wunderground v.1.15,2013-09-05 11:06:00,
2013-09-05 07:09:00,62.3,57.4,30.06,WNW,300,0.0,1.0,84,0.00,,,0.00,35,Wunderground v.1.15,2013-09-05 11:09:00,
2013-09-05 07:11:00,62.4,57.5,30.06,WNW,300,0.0,0.0,84,0.00,,,0.00,39,Wunderground v.1.15,2013-09-05 11:11:00,
2013-09-05 07:13:00,62.4,57.5,30.06,WNW,300,0.0,0.0,84,0.00,,,0.00,37,Wunderground v.1.15,2013-09-05 11:13:00,
2013-09-05 07:14:00,62.5,57.9,30.06,WNW,300,0.0,0.0,85,0.00,,,0.00,39,Wunderground v.1.15,2013-09-05 11:14:00,
2013-09-05 07:19:00,62.4,57.8,30.06,South,186,0.0,2.0,85,0.00,,,0.00,35,Wunderground v.1.15,2013-09-05 11:19:00,
2013-09-05 07:20:00,62.4,57.8,30.06,South,186,0.0,0.0,85,0.00,,,0.00,33,Wunderground v.1.15,2013-09-05 11:20:00,
2013-09-05 07:22:00,62.3,57.7,30.07,South,186,1.0,1.0,85,0.00,,,0.00,33,Wunderground v.1.15,2013-09-05 11:22:00,
2013-09-05 07:28:00,62.2,57.6,30.07,South,186,1.0,1.0,85,0.00,,,0.00,47,Wunderground v.1.15,2013-09-05 11:28:00,
2013-09-05 07:30:00,62.1,57.9,30.07,South,186,1.0,1.0,86,0.00,,,0.00,54,Wunderground v.1.15,2013-09-05 11:30:00,
2013-09-05 07:31:00,62.0,57.8,30.07,South,186,1.0,1.0,86,0.00,,,0.00,62,Wunderground v.1.15,2013-09-05 11:31:00,
2013-09-05 07:33:00,62.0,57.8,30.07,South,186,1.0,1.0,86,0.00,,,0.00,63,Wunderground v.1.15,2013-09-05 11:33:00,
2013-09-05 07:34:00,62.0,57.8,30.07,South,186,1.0,1.0,86,0.00,,,0.00,67,Wunderground v.1.15,2013-09-05 11:34:00,
2013-09-05 07:39:00,62.0,57.8,30.07,South,186,1.0,2.0,86,0.00,,,0.00,51,Wunderground v.1.15,2013-09-05 11:39:00,
2013-09-05 07:41:00,61.9,57.7,30.07,South,186,1.0,2.0,86,0.00,,,0.00,54,Wunderground v.1.15,2013-09-05 11:41:00,
2013-09-05 07:43:00,61.9,57.7,30.07,South,186,1.0,2.0,86,0.00,,,0.00,58,Wunderground v.1.15,2013-09-05 11:43:00,
2013-09-05 07:44:00,62.0,57.8,30.07,South,186,1.0,2.0,86,0.00,,,0.00,62,Wunderground v.1.15,2013-09-05 11:44:00,
2013-09-05 07:47:00,62.0,57.8,30.07,South,186,1.0,2.0,86,0.00,,,0.00,69,Wunderground v.1.15,2013-09-05 11:47:00,
2013-09-05 07:48:00,62.0,57.8,30.07,South,173,1.0,2.0,86,0.00,,,0.00,69,Wunderground v.1.15,2013-09-05 11:48:00,
2013-09-05 07:53:00,62.0,57.8,30.07,SSE,159,1.0,2.0,86,0.00,,,0.00,70,Wunderground v.1.15,2013-09-05 11:53:00,
2013-09-05 07:54:00,62.1,57.9,30.07,SSE,147,1.0,2.0,86,0.00,,,0.00,70,Wunderground v.1.15,2013-09-05 11:54:00,
2013-09-05 07:55:00,62.1,57.5,30.07,SSE,147,1.0,2.0,85,0.00,,,0.00,70,Wunderground v.1.15,2013-09-05 11:55:00,
2013-09-05 07:57:00,62.1,57.5,30.07,SSE,147,1.0,2.0,85,0.00,,,0.00,74,Wunderground v.1.15,2013-09-05 11:57:00,
2013-09-05 07:59:00,62.2,57.6,30.07,WNW,284,1.0,2.0,85,0.00,,,0.00,81,Wunderground v.1.15,2013-09-05 11:59:00,
2013-09-05 08:00:00,62.3,57.7,30.07,WNW,299,1.0,1.0,85,0.00,,,0.00,88,Wunderground v.1.15,2013-09-05 12:00:00,
2013-09-05 08:01:00,62.3,57.7,30.07,WNW,299,1.0,1.0,85,0.00,,,0.00,97,Wunderground v.1.15,2013-09-05 12:01:00,
2013-09-05 08:03:00,62.4,57.8,30.07,WNW,299,1.0,1.0,85,0.00,,,0.00,127,Wunderground v.1.15,2013-09-05 12:03:00,
2013-09-05 08:05:00,62.6,58.0,30.07,WNW,299,1.0,1.0,85,0.00,,,0.00,130,Wunderground v.1.15,2013-09-05 12:05:00,
2013-09-05 08:06:00,62.7,58.1,30.07,WNW,301,1.0,1.0,85,0.00,,,0.00,141,Wunderground v.1.15,2013-09-05 12:06:00,
2013-09-05 08:07:00,62.7,57.8,30.07,WNW,288,1.0,1.0,84,0.00,,,0.00,146,Wunderground v.1.15,2013-09-05 12:07:00,
2013-09-05 08:09:00,62.9,58.0,30.07,WNW,295,1.0,1.0,84,0.00,,,0.00,107,Wunderground v.1.15,2013-09-05 12:09:00,
2013-09-05 08:14:00,63.4,58.5,30.07,WNW,290,1.0,1.0,84,0.00,,,0.00,125,Wunderground v.1.15,2013-09-05 12:14:00,
2013-09-05 08:15:00,63.5,58.2,30.07,WNW,290,1.0,1.0,83,0.00,,,0.00,130,Wunderground v.1.15,2013-09-05 12:15:00,
2013-09-05 08:20:00,64.0,58.7,30.07,WNW,284,0.0,2.0,83,0.00,,,0.00,197,Wunderground v.1.15,2013-09-05 12:20:00,
2013-09-05 08:21:00,64.0,58.7,30.07,WNW,294,1.0,2.0,83,0.00,,,0.00,163,Wunderground v.1.15,2013-09-05 12:21:00,
2013-09-05 08:23:00,64.2,58.9,30.07,WNW,293,1.0,2.0,83,0.00,,,0.00,125,Wunderground v.1.15,2013-09-05 12:23:00,
2013-09-05 08:28:00,64.5,58.9,30.07,WNW,288,1.0,2.0,82,0.00,,,0.00,128,Wunderground v.1.15,2013-09-05 12:28:00,
2013-09-05 08:29:00,64.6,59.0,30.07,WNW,288,1.0,2.0,82,0.00,,,0.00,125,Wunderground v.1.15,2013-09-05 12:29:00,
2013-09-05 08:30:00,64.7,59.1,30.07,WNW,288,1.0,1.0,82,0.00,,,0.00,125,Wunderground v.1.15,2013-09-05 12:30:00,
2013-09-05 08:32:00,64.8,58.8,30.07,WNW,288,1.0,2.0,81,0.00,,,0.00,128,Wunderground v.1.15,2013-09-05 12:32:00,
2013-09-05 08:35:00,65.0,59.0,30.07,SE,143,0.0,2.0,81,0.00,,,0.00,123,Wunderground v.1.15,2013-09-05 12:35:00,
2013-09-05 08:38:00,65.1,59.1,30.07,SE,143,1.0,2.0,81,0.00,,,0.00,120,Wunderground v.1.15,2013-09-05 12:38:00,
2013-09-05 08:40:00,65.3,59.3,30.07,SE,143,1.0,1.0,81,0.00,,,0.00,141,Wunderground v.1.15,2013-09-05 12:40:00,
2013-09-05 08:41:00,65.3,59.3,30.07,SE,143,1.0,1.0,81,0.00,,,0.00,151,Wunderground v.1.15,2013-09-05 12:41:00,
2013-09-05 08:43:00,65.4,59.4,30.07,West,276,1.0,2.0,81,0.00,,,0.00,167,Wunderground v.1.15,2013-09-05 12:43:00,
2013-09-05 08:48:00,65.8,59.5,30.06,West,277,1.0,2.0,80,0.00,,,0.00,125,Wunderground v.1.15,2013-09-05 12:48:00,
2013-09-05 08:49:00,65.8,59.5,30.07,SE,126,1.0,2.0,80,0.00,,,0.00,114,Wunderground v.1.15,2013-09-05 12:49:00,
2013-09-05 08:52:00,66.0,59.3,30.07,SE,139,1.0,1.0,79,0.00,,,0.00,172,Wunderground v.1.15,2013-09-05 12:52:00,
2013-09-05 08:55:00,66.2,59.8,30.07,SE,139,1.0,1.0,80,0.00,,,0.00,193,Wunderground v.1.15,2013-09-05 12:55:00,
2013-09-05 08:58:00,66.4,59.7,30.06,WSW,247,1.0,1.0,79,0.00,,,0.00,183,Wunderground v.1.15,2013-09-05 12:58:00,
2013-09-05 09:00:00,66.6,60.2,30.06,SSW,213,1.0,1.0,80,0.00,,,0.00,186,Wunderground v.1.15,2013-09-05 13:00:00,
2013-09-05 09:02:00,66.8,59.7,30.07,West,269,1.0,5.0,78,0.00,,,0.00,186,Wunderground v.1.15,2013-09-05 13:02:00,
2013-09-05 09:06:00,67.1,59.3,30.07,West,266,2.0,5.0,76,0.00,,,0.00,181,Wunderground v.1.15,2013-09-05 13:06:00,
2013-09-05 09:07:00,67.1,59.3,30.07,NW,308,2.0,5.0,76,0.00,,,0.00,190,Wunderground v.1.15,2013-09-05 13:07:00,
2013-09-05 09:09:00,67.3,59.5,30.07,North,5,2.0,5.0,76,0.00,,,0.00,213,Wunderground v.1.15,2013-09-05 13:09:00,
2013-09-05 09:12:00,67.4,59.2,30.07,NW,315,2.0,2.0,75,0.00,,,0.00,199,Wunderground v.1.15,2013-09-05 13:12:00,
2013-09-05 09:13:00,67.5,59.3,30.07,WNW,290,2.0,2.0,75,0.00,,,0.00,244,Wunderground v.1.15,2013-09-05 13:13:00,
2013-09-05 09:18:00,67.9,59.3,30.07,NNW,343,2.0,2.0,74,0.00,,,0.00,287,Wunderground v.1.15,2013-09-05 13:18:00,
2013-09-05 09:19:00,68.0,59.4,30.07,WNW,298,2.0,3.0,74,0.00,,,0.00,313,Wunderground v.1.15,2013-09-05 13:19:00,
2013-09-05 09:21:00,68.1,59.5,30.07,West,269,2.0,3.0,74,0.00,,,0.00,302,Wunderground v.1.15,2013-09-05 13:21:00,
2013-09-05 09:24:00,68.3,60.1,30.07,WNW,291,2.0,3.0,75,0.00,,,0.00,388,Wunderground v.1.15,2013-09-05 13:24:00,
2013-09-05 09:25:00,68.4,60.2,30.07,WNW,298,2.0,3.0,75,0.00,,,0.00,459,Wunderground v.1.15,2013-09-05 13:25:00,
2013-09-05 09:26:00,68.5,59.9,30.07,WNW,290,2.0,3.0,74,0.00,,,0.00,469,Wunderground v.1.15,2013-09-05 13:26:00,
2013-09-05 09:27:00,68.7,60.1,30.07,WNW,290,2.0,3.0,74,0.00,,,0.00,482,Wunderground v.1.15,2013-09-05 13:27:00,
2013-09-05 09:29:00,68.8,60.2,30.07,WSW,240,2.0,3.0,74,0.00,,,0.00,482,Wunderground v.1.15,2013-09-05 13:29:00,
2013-09-05 09:32:00,69.1,60.1,30.07,WNW,302,2.0,3.0,73,0.00,,,0.00,223,Wunderground v.1.15,2013-09-05 13:32:00,
2013-09-05 09:36:00,69.2,59.8,30.07,NW,323,2.0,3.0,72,0.00,,,0.00,209,Wunderground v.1.15,2013-09-05 13:36:00,
2013-09-05 09:38:00,69.1,59.7,30.07,WNW,300,2.0,3.0,72,0.00,,,0.00,160,Wunderground v.1.15,2013-09-05 13:38:00,
2013-09-05 09:39:00,69.1,59.7,30.07,NNW,337,2.0,2.0,72,0.00,,,0.00,146,Wunderground v.1.15,2013-09-05 13:39:00,
2013-09-05 09:41:00,69.2,59.8,30.07,NNW,338,2.0,2.0,72,0.00,,,0.00,171,Wunderground v.1.15,2013-09-05 13:41:00,
2013-09-05 09:43:00,69.2,59.4,30.07,NW,321,2.0,4.0,71,0.00,,,0.00,151,Wunderground v.1.15,2013-09-05 13:43:00,
2013-09-05 09:44:00,69.2,59.4,30.07,West,262,2.0,4.0,71,0.00,,,0.00,190,Wunderground v.1.15,2013-09-05 13:44:00,
2013-09-05 09:45:00,69.1,59.7,30.07,WNW,282,2.0,4.0,72,0.00,,,0.00,183,Wunderground v.1.15,2013-09-05 13:45:00,
2013-09-05 09:46:00,69.1,59.7,30.07,WNW,292,3.0,4.0,72,0.00,,,0.00,195,Wunderground v.1.15,2013-09-05 13:46:00,
2013-09-05 09:50:00,68.9,59.5,30.08,WNW,299,3.0,7.0,72,0.00,,,0.00,195,Wunderground v.1.15,2013-09-05 13:50:00,
2013-09-05 09:51:00,68.9,59.1,30.08,WNW,292,3.0,7.0,71,0.00,,,0.00,186,Wunderground v.1.15,2013-09-05 13:51:00,
2013-09-05 09:52:00,68.8,59.0,30.08,NW,308,4.0,7.0,71,0.00,,,0.00,206,Wunderground v.1.15,2013-09-05 13:52:00,
2013-09-05 09:54:00,68.7,59.3,30.08,NW,315,4.0,7.0,72,0.00,,,0.00,211,Wunderground v.1.15,2013-09-05 13:54:00,
2013-09-05 09:56:00,68.5,59.1,30.08,SW,234,4.0,7.0,72,0.00,,,0.00,171,Wunderground v.1.15,2013-09-05 13:56:00,
2013-09-05 09:59:00,68.3,58.9,30.08,NNW,343,5.0,7.0,72,0.00,,,0.00,142,Wunderground v.1.15,2013-09-05 13:59:00,
2013-09-05 10:00:00,68.3,58.9,30.08,North,349,5.0,5.0,72,0.00,,,0.00,98,Wunderground v.1.15,2013-09-05 14:00:00,
2013-09-05 10:02:00,68.1,59.1,30.08,NW,314,5.0,5.0,73,0.00,,,0.00,116,Wunderground v.1.15,2013-09-05 14:02:00,
2013-09-05 10:05:00,68.1,59.5,30.08,West,278,4.0,5.0,74,0.00,,,0.00,165,Wunderground v.1.15,2013-09-05 14:05:00,
2013-09-05 10:06:00,68.1,59.5,30.07,WNW,291,4.0,5.0,74,0.00,,,0.00,148,Wunderground v.1.15,2013-09-05 14:06:00,
2013-09-05 10:09:00,68.0,59.4,30.08,West,271,4.0,5.0,74,0.00,,,0.00,118,Wunderground v.1.15,2013-09-05 14:09:00,
2013-09-05 10:11:00,68.0,59.4,30.08,West,280,3.0,4.0,74,0.00,,,0.00,77,Wunderground v.1.15,2013-09-05 14:11:00,
2013-09-05 10:12:00,68.0,59.4,30.08,WNW,285,3.0,5.0,74,0.00,,,0.00,77,Wunderground v.1.15,2013-09-05 14:12:00,
2013-09-05 10:13:00,68.0,59.0,30.08,WNW,296,3.0,5.0,73,0.00,,,0.00,84,Wunderground v.1.15,2013-09-05 14:13:00,
2013-09-05 10:15:00,67.9,59.3,30.08,North,355,4.0,6.0,74,0.00,,,0.00,84,Wunderground v.1.15,2013-09-05 14:15:00,
2013-09-05 10:16:00,67.9,59.3,30.09,North,350,4.0,6.0,74,0.00,,,0.00,79,Wunderground v.1.15,2013-09-05 14:16:00,
2013-09-05 10:19:00,67.8,58.8,30.08,WNW,297,4.0,6.0,73,0.00,,,0.00,141,Wunderground v.1.15,2013-09-05 14:19:00,
2013-09-05 10:23:00,67.6,59.0,30.08,NW,317,5.0,6.0,74,0.00,,,0.00,79,Wunderground v.1.15,2013-09-05 14:23:00,
2013-09-05 10:24:00,67.6,59.0,30.08,NW,319,5.0,6.0,74,0.00,,,0.00,139,Wunderground v.1.15,2013-09-05 14:24:00,
2013-09-05 10:26:00,67.6,59.0,30.09,WNW,282,4.0,6.0,74,0.00,,,0.00,141,Wunderground v.1.15,2013-09-05 14:26:00,
2013-09-05 10:30:00,67.6,59.0,30.09,North,5,4.0,5.0,74,0.00,,,0.00,97,Wunderground v.1.15,2013-09-05 14:30:00,
2013-09-05 10:32:00,67.6,59.0,30.09,West,277,4.0,7.0,74,0.00,,,0.00,102,Wunderground v.1.15,2013-09-05 14:32:00,
2013-09-05 10:33:00,67.5,59.3,30.09,WNW,302,4.0,7.0,75,0.00,,,0.00,107,Wunderground v.1.15,2013-09-05 14:33:00,
2013-09-05 10:39:00,67.2,58.2,30.09,NW,325,5.0,7.0,73,0.00,,,0.00,162,Wunderground v.1.15,2013-09-05 14:39:00,
2013-09-05 10:41:00,67.2,58.2,30.09,NNW,328,5.0,5.0,73,0.00,,,0.00,264,Wunderground v.1.15,2013-09-05 14:41:00,
2013-09-05 10:42:00,67.2,58.2,30.09,NNW,336,5.0,6.0,73,0.00,,,0.00,297,Wunderground v.1.15,2013-09-05 14:42:00,
2013-09-05 10:45:00,67.4,57.7,30.09,WNW,290,5.0,6.0,71,0.00,,,0.00,332,Wunderground v.1.15,2013-09-05 14:45:00,
2013-09-05 10:48:00,67.7,56.8,30.09,North,11,4.0,8.0,68,0.00,,,0.00,218,Wunderground v.1.15,2013-09-05 14:48:00,
2013-09-05 10:49:00,67.8,56.4,30.09,NNW,348,4.0,8.0,67,0.00,,,0.00,225,Wunderground v.1.15,2013-09-05 14:49:00,
2013-09-05 10:51:00,67.9,56.1,30.10,NNW,345,5.0,6.0,66,0.00,,,0.00,225,Wunderground v.1.15,2013-09-05 14:51:00,
2013-09-05 10:54:00,68.1,56.3,30.10,NW,306,5.0,6.0,66,0.00,,,0.00,717,Wunderground v.1.15,2013-09-05 14:54:00,
2013-09-05 10:57:00,68.4,55.3,30.10,NNW,327,6.0,6.0,63,0.00,,,0.00,793,Wunderground v.1.15,2013-09-05 14:57:00,
2013-09-05 10:59:00,68.4,55.3,30.10,North,9,5.0,8.0,63,0.00,,,0.00,218,Wunderground v.1.15,2013-09-05 14:59:00,
2013-09-05 11:01:00,68.5,55.0,30.10,West,263,5.0,5.0,62,0.00,,,0.00,754,Wunderground v.1.15,2013-09-05 15:01:00,
2013-09-05 11:03:00,68.5,55.0,30.10,SW,218,5.0,5.0,62,0.00,,,0.00,754,Wunderground v.1.15,2013-09-05 15:03:00,
2013-09-05 11:05:00,68.7,55.2,30.10,WNW,298,4.0,5.0,62,0.00,,,0.00,719,Wunderground v.1.15,2013-09-05 15:05:00,
2013-09-05 11:06:00,68.8,55.2,30.10,NW,304,4.0,5.0,62,0.00,,,0.00,707,Wunderground v.1.15,2013-09-05 15:06:00,
2013-09-05 11:08:00,69.0,55.0,30.10,West,271,4.0,7.0,61,0.00,,,0.00,714,Wunderground v.1.15,2013-09-05 15:08:00,
2013-09-05 11:11:00,69.5,55.5,30.10,NW,318,4.0,8.0,61,0.00,,,0.00,735,Wunderground v.1.15,2013-09-05 15:11:00,
2013-09-05 11:12:00,69.7,55.2,30.10,North,11,4.0,8.0,60,0.00,,,0.00,735,Wunderground v.1.15,2013-09-05 15:12:00,
2013-09-05 11:13:00,69.8,54.4,30.10,NW,315,4.0,8.0,58,0.00,,,0.00,726,Wunderground v.1.15,2013-09-05 15:13:00,
2013-09-05 11:15:00,69.9,54.0,30.10,NW,306,4.0,8.0,57,0.00,,,0.00,710,Wunderground v.1.15,2013-09-05 15:15:00,
2013-09-05 11:18:00,70.0,54.5,30.10,NW,307,4.0,8.0,58,0.00,,,0.00,795,Wunderground v.1.15,2013-09-05 15:18:00,
2013-09-05 11:21:00,70.3,54.3,30.10,ENE,76,4.0,5.0,57,0.00,,,0.00,844,Wunderground v.1.15,2013-09-05 15:21:00,
2013-09-05 11:23:00,70.4,54.0,30.10,West,271,4.0,5.0,56,0.00,,,0.00,817,Wunderground v.1.15,2013-09-05 15:23:00,
2013-09-05 11:25:00,70.5,53.6,30.10,NE,39,4.0,6.0,55,0.00,,,0.00,796,Wunderground v.1.15,2013-09-05 15:25:00,
2013-09-05 11:26:00,70.6,52.6,30.10,NNW,337,4.0,6.0,53,0.00,,,0.00,789,Wunderground v.1.15,2013-09-05 15:26:00,
2013-09-05 11:31:00,70.5,51.5,30.10,WNW,286,5.0,5.0,51,0.00,,,0.00,647,Wunderground v.1.15,2013-09-05 15:31:00,
2013-09-05 11:32:00,70.5,52.0,30.10,NNW,340,5.0,5.0,52,0.00,,,0.00,647,Wunderground v.1.15,2013-09-05 15:32:00,
2013-09-05 11:33:00,70.6,51.1,30.10,NW,311,5.0,5.0,50,0.00,,,0.00,647,Wunderground v.1.15,2013-09-05 15:33:00,
2013-09-05 11:34:00,70.7,51.7,30.10,NW,304,5.0,9.0,51,0.00,,,0.00,800,Wunderground v.1.15,2013-09-05 15:34:00,
2013-09-05 11:40:00,70.8,50.1,30.10,NW,314,4.0,4.0,48,0.00,,,0.00,629,Wunderground v.1.15,2013-09-05 15:40:00,
2013-09-05 11:43:00,70.9,49.7,30.10,NW,312,5.0,8.0,47,0.00,,,0.00,788,Wunderground v.1.15,2013-09-05 15:43:00,
2013-09-05 11:46:00,71.1,48.7,30.10,West,267,5.0,8.0,45,0.00,,,0.00,780,Wunderground v.1.15,2013-09-05 15:46:00,
2013-09-05 11:49:00,71.2,48.8,30.10,NNW,327,5.0,8.0,45,0.00,,,0.00,777,Wunderground v.1.15,2013-09-05 15:49:00,
2013-09-05 11:51:00,71.3,49.4,30.09,NNW,343,6.0,7.0,46,0.00,,,0.00,777,Wunderground v.1.15,2013-09-05 15:51:00,
2013-09-05 11:52:00,71.4,49.5,30.09,North,355,6.0,7.0,46,0.00,,,0.00,777,Wunderground v.1.15,2013-09-05 15:52:00,
2013-09-05 11:54:00,71.6,49.7,30.09,NNW,347,5.0,7.0,46,0.00,,,0.00,775,Wunderground v.1.15,2013-09-05 15:54:00,
2013-09-05 11:56:00,71.5,49.6,30.09,NNW,345,5.0,7.0,46,0.00,,,0.00,780,Wunderground v.1.15,2013-09-05 15:56:00,
2013-09-05 11:59:00,71.5,49.0,30.10,North,350,5.0,8.0,45,0.00,,,0.00,779,Wunderground v.1.15,2013-09-05 15:59:00,
2013-09-05 12:02:00,71.4,49.5,30.10,NW,322,5.0,5.0,46,0.00,,,0.00,788,Wunderground v.1.15,2013-09-05 16:02:00,
2013-09-05 12:06:00,71.7,49.8,30.10,WNW,302,4.0,7.0,46,0.00,,,0.00,793,Wunderground v.1.15,2013-09-05 16:06:00,
2013-09-05 12:08:00,71.8,49.9,30.10,WNW,286,3.0,7.0,46,0.00,,,0.00,796,Wunderground v.1.15,2013-09-05 16:08:00,
2013-09-05 12:09:00,72.1,49.6,30.10,NW,317,3.0,8.0,45,0.00,,,0.00,798,Wunderground v.1.15,2013-09-05 16:09:00,
2013-09-05 12:12:00,72.2,49.1,30.10,WNW,300,3.0,8.0,44,0.00,,,0.00,798,Wunderground v.1.15,2013-09-05 16:12:00,
2013-09-05 12:14:00,72.3,48.5,30.10,North,355,4.0,8.0,43,0.00,,,0.00,800,Wunderground v.1.15,2013-09-05 16:14:00,
2013-09-05 12:16:00,72.3,48.5,30.10,North,360,4.0,8.0,43,0.00,,,0.00,805,Wunderground v.1.15,2013-09-05 16:16:00,
2013-09-05 12:20:00,72.4,48.6,30.10,NNE,31,5.0,7.0,43,0.00,,,0.00,814,Wunderground v.1.15,2013-09-05 16:20:00,
2013-09-05 12:21:00,72.5,48.7,30.10,NNE,12,5.0,7.0,43,0.00,,,0.00,819,Wunderground v.1.15,2013-09-05 16:21:00,
2013-09-05 12:22:00,72.6,49.4,30.10,NW,319,5.0,7.0,44,0.00,,,0.00,824,Wunderground v.1.15,2013-09-05 16:22:00,
2013-09-05 12:27:00,72.9,48.5,30.09,NNW,327,5.0,10.0,42,0.00,,,0.00,809,Wunderground v.1.15,2013-09-05 16:27:00,
2013-09-05 12:28:00,72.9,48.5,30.09,North,349,5.0,10.0,42,0.00,,,0.00,849,Wunderground v.1.15,2013-09-05 16:28:00,
2013-09-05 12:30:00,73.0,48.5,30.09,WNW,294,5.0,5.0,42,0.00,,,0.00,728,Wunderground v.1.15,2013-09-05 16:30:00,
2013-09-05 12:31:00,73.0,47.2,30.09,NW,319,5.0,5.0,40,0.00,,,0.00,728,Wunderground v.1.15,2013-09-05 16:31:00,
2013-09-05 12:32:00,73.2,47.4,30.09,NW,325,5.0,5.0,40,0.00,,,0.00,854,Wunderground v.1.15,2013-09-05 16:32:00,
2013-09-05 12:33:00,73.2,48.1,30.09,NW,313,5.0,7.0,41,0.00,,,0.00,854,Wunderground v.1.15,2013-09-05 16:33:00,
2013-09-05 12:34:00,73.1,47.3,30.09,West,274,5.0,7.0,40,0.00,,,0.00,830,Wunderground v.1.15,2013-09-05 16:34:00,
2013-09-05 12:36:00,72.8,47.1,30.09,NNW,342,5.0,7.0,40,0.00,,,0.00,874,Wunderground v.1.15,2013-09-05 16:36:00,
2013-09-05 12:37:00,72.7,48.3,30.09,NW,322,5.0,7.0,42,0.00,,,0.00,881,Wunderground v.1.15,2013-09-05 16:37:00,
2013-09-05 12:39:00,72.8,48.4,30.09,NNW,344,5.0,7.0,42,0.00,,,0.00,749,Wunderground v.1.15,2013-09-05 16:39:00,
2013-09-05 12:42:00,73.1,49.3,30.09,NW,311,4.0,5.0,43,0.00,,,0.00,796,Wunderground v.1.15,2013-09-05 16:42:00,
2013-09-05 12:45:00,73.0,47.9,30.09,NW,310,4.0,5.0,41,0.00,,,0.00,828,Wunderground v.1.15,2013-09-05 16:45:00,
2013-09-05 12:46:00,73.0,48.5,30.09,NW,305,4.0,5.0,42,0.00,,,0.00,796,Wunderground v.1.15,2013-09-05 16:46:00,
2013-09-05 12:47:00,73.0,48.5,30.09,WSW,254,4.0,5.0,42,0.00,,,0.00,888,Wunderground v.1.15,2013-09-05 16:47:00,
2013-09-05 12:49:00,73.0,48.5,30.09,SW,222,4.0,5.0,42,0.00,,,0.00,888,Wunderground v.1.15,2013-09-05 16:49:00,
2013-09-05 12:50:00,73.0,48.5,30.09,West,269,4.0,7.0,42,0.00,,,0.00,691,Wunderground v.1.15,2013-09-05 16:50:00,
2013-09-05 12:53:00,73.2,46.8,30.09,North,349,4.0,7.0,39,0.00,,,0.00,710,Wunderground v.1.15,2013-09-05 16:53:00,
2013-09-05 12:54:00,73.1,46.7,30.10,NW,312,4.0,7.0,39,0.00,,,0.00,679,Wunderground v.1.15,2013-09-05 16:54:00,
2013-09-05 12:56:00,73.0,46.6,30.10,North,5,5.0,7.0,39,0.00,,,0.00,552,Wunderground v.1.15,2013-09-05 16:56:00,
2013-09-05 12:58:00,72.8,47.1,30.10,NW,316,6.0,7.0,40,0.00,,,0.00,606,Wunderground v.1.15,2013-09-05 16:58:00,
2013-09-05 13:02:00,72.9,48.5,30.10,WNW,296,6.0,6.0,42,0.00,,,0.00,673,Wunderground v.1.15,2013-09-05 17:02:00,
2013-09-05 13:04:00,73.0,47.2,30.10,SSE,155,6.0,6.0,40,0.00,,,0.00,675,Wunderground v.1.15,2013-09-05 17:04:00,
2013-09-05 13:08:00,72.9,46.5,30.10,WNW,282,6.0,8.0,39,0.00,,,0.00,608,Wunderground v.1.15,2013-09-05 17:08:00,
2013-09-05 13:09:00,72.9,45.8,30.10,NW,323,5.0,8.0,38,0.00,,,0.00,635,Wunderground v.1.15,2013-09-05 17:09:00,
2013-09-05 13:10:00,73.0,45.9,30.10,NW,307,5.0,6.0,38,0.00,,,0.00,737,Wunderground v.1.15,2013-09-05 17:10:00,
2013-09-05 13:14:00,73.0,45.2,30.10,ENE,70,5.0,8.0,37,0.00,,,0.00,814,Wunderground v.1.15,2013-09-05 17:14:00,
2013-09-05 13:16:00,73.1,44.5,30.10,SE,131,5.0,8.0,36,0.00,,,0.00,812,Wunderground v.1.15,2013-09-05 17:16:00,
2013-09-05 13:17:00,73.1,45.3,30.10,NNW,347,5.0,8.0,37,0.00,,,0.00,814,Wunderground v.1.15,2013-09-05 17:17:00,
2013-09-05 13:18:00,73.1,45.3,30.10,WNW,294,5.0,8.0,37,0.00,,,0.00,816,Wunderground v.1.15,2013-09-05 17:18:00,
2013-09-05 13:20:00,73.3,44.7,30.10,NNW,336,5.0,8.0,36,0.00,,,0.00,810,Wunderground v.1.15,2013-09-05 17:20:00,
2013-09-05 13:24:00,73.3,46.2,30.10,NNW,336,5.0,8.0,38,0.00,,,0.00,802,Wunderground v.1.15,2013-09-05 17:24:00,
2013-09-05 13:26:00,73.3,45.4,30.10,North,5,5.0,8.0,37,0.00,,,0.00,798,Wunderground v.1.15,2013-09-05 17:26:00,
2013-09-05 13:27:00,73.5,46.3,30.10,NE,38,5.0,8.0,38,0.00,,,0.00,800,Wunderground v.1.15,2013-09-05 17:27:00,
2013-09-05 13:29:00,73.7,46.5,30.10,NW,306,5.0,8.0,38,0.00,,,0.00,800,Wunderground v.1.15,2013-09-05 17:29:00,
2013-09-05 13:32:00,73.6,45.0,30.10,NNW,327,5.0,8.0,36,0.00,,,0.00,796,Wunderground v.1.15,2013-09-05 17:32:00,
2013-09-05 13:36:00,73.2,44.6,30.10,West,270,6.0,10.0,36,0.00,,,0.00,795,Wunderground v.1.15,2013-09-05 17:36:00,
2013-09-05 13:39:00,73.1,45.3,30.11,NNW,345,7.0,13.0,37,0.00,,,0.00,791,Wunderground v.1.15,2013-09-05 17:39:00,
2013-09-05 13:44:00,72.9,45.8,30.11,WNW,298,6.0,13.0,38,0.00,,,0.00,788,Wunderground v.1.15,2013-09-05 17:44:00,
2013-09-05 13:46:00,73.2,45.4,30.11,NNW,329,5.0,13.0,37,0.00,,,0.00,786,Wunderground v.1.15,2013-09-05 17:46:00,
2013-09-05 13:48:00,73.4,45.5,30.11,SW,220,5.0,13.0,37,0.00,,,0.00,784,Wunderground v.1.15,2013-09-05 17:48:00,
2013-09-05 13:49:00,73.5,46.3,30.11,WNW,288,4.0,13.0,38,0.00,,,0.00,782,Wunderground v.1.15,2013-09-05 17:49:00,
2013-09-05 13:52:00,73.6,45.7,30.11,WSW,252,4.0,6.0,37,0.00,,,0.00,784,Wunderground v.1.15,2013-09-05 17:52:00,
2013-09-05 13:53:00,73.7,45.1,30.11,NNW,334,4.0,6.0,36,0.00,,,0.00,786,Wunderground v.1.15,2013-09-05 17:53:00,
2013-09-05 13:54:00,73.7,45.1,30.11,NW,306,4.0,6.0,36,0.00,,,0.00,786,Wunderground v.1.15,2013-09-05 17:54:00,
2013-09-05 13:57:00,73.7,45.1,30.11,NNW,340,5.0,6.0,36,0.00,,,0.00,775,Wunderground v.1.15,2013-09-05 17:57:00,
2013-09-05 13:59:00,73.7,45.8,30.11,West,271,5.0,6.0,37,0.00,,,0.00,777,Wunderground v.1.15,2013-09-05 17:59:00,
2013-09-05 14:00:00,73.7,45.8,30.11,West,265,5.0,5.0,37,0.00,,,0.00,775,Wunderground v.1.15,2013-09-05 18:00:00,
2013-09-05 14:02:00,73.7,45.8,30.11,WNW,299,6.0,6.0,37,0.00,,,0.00,772,Wunderground v.1.15,2013-09-05 18:02:00,
2013-09-05 14:06:00,74.0,46.1,30.10,SE,139,5.0,6.0,37,0.00,,,0.00,766,Wunderground v.1.15,2013-09-05 18:06:00,
2013-09-05 14:09:00,74.2,45.5,30.10,NW,317,4.0,7.0,36,0.00,,,0.00,765,Wunderground v.1.15,2013-09-05 18:09:00,
2013-09-05 14:11:00,74.2,44.8,30.10,NNW,332,4.0,6.0,35,0.00,,,0.00,763,Wunderground v.1.15,2013-09-05 18:11:00,
2013-09-05 14:12:00,74.2,46.2,30.10,WNW,289,4.0,6.0,37,0.00,,,0.00,759,Wunderground v.1.15,2013-09-05 18:12:00,
2013-09-05 14:15:00,74.1,46.9,30.10,North,11,4.0,6.0,38,0.00,,,0.00,759,Wunderground v.1.15,2013-09-05 18:15:00,
2013-09-05 14:17:00,74.2,46.2,30.10,West,281,5.0,6.0,37,0.00,,,0.00,756,Wunderground v.1.15,2013-09-05 18:17:00,
2013-09-05 14:18:00,74.2,46.2,30.10,SW,214,4.0,6.0,37,0.00,,,0.00,756,Wunderground v.1.15,2013-09-05 18:18:00,
2013-09-05 14:19:00,74.2,45.5,30.10,WSW,249,4.0,6.0,36,0.00,,,0.00,754,Wunderground v.1.15,2013-09-05 18:19:00,
2013-09-05 14:24:00,74.0,46.1,30.10,NNE,26,5.0,9.0,37,0.00,,,0.00,747,Wunderground v.1.15,2013-09-05 18:24:00,
2013-09-05 14:26:00,74.1,46.2,30.10,WNW,302,5.0,9.0,37,0.00,,,0.00,745,Wunderground v.1.15,2013-09-05 18:26:00,
2013-09-05 14:28:00,74.3,45.6,30.10,WNW,296,6.0,9.0,36,0.00,,,0.00,742,Wunderground v.1.15,2013-09-05 18:28:00,
2013-09-05 14:32:00,74.0,44.6,30.10,WNW,286,7.0,8.0,35,0.00,,,0.00,738,Wunderground v.1.15,2013-09-05 18:32:00,
2013-09-05 14:35:00,73.4,44.8,30.10,WNW,288,6.0,8.0,36,0.00,,,0.00,733,Wunderground v.1.15,2013-09-05 18:35:00,
2013-09-05 14:38:00,73.2,46.1,30.10,NW,317,7.0,8.0,38,0.00,,,0.00,728,Wunderground v.1.15,2013-09-05 18:38:00,
2013-09-05 14:39:00,73.2,46.1,30.10,North,355,7.0,8.0,38,0.00,,,0.00,726,Wunderground v.1.15,2013-09-05 18:39:00,
2013-09-05 14:40:00,73.2,45.4,30.10,NW,319,6.0,6.0,37,0.00,,,0.00,724,Wunderground v.1.15,2013-09-05 18:40:00,
2013-09-05 14:44:00,73.3,46.2,30.10,NNW,346,5.0,6.0,38,0.00,,,0.00,719,Wunderground v.1.15,2013-09-05 18:44:00,
2013-09-05 14:46:00,73.6,46.4,30.10,NW,315,4.0,6.0,38,0.00,,,0.00,717,Wunderground v.1.15,2013-09-05 18:46:00,
2013-09-05 14:48:00,73.9,46.7,30.09,NW,305,4.0,6.0,38,0.00,,,0.00,714,Wunderground v.1.15,2013-09-05 18:48:00,
2013-09-05 14:49:00,74.1,45.4,30.10,NW,319,4.0,4.0,36,0.00,,,0.00,710,Wunderground v.1.15,2013-09-05 18:49:00,
2013-09-05 14:52:00,74.0,46.1,30.10,North,355,4.0,4.0,37,0.00,,,0.00,705,Wunderground v.1.15,2013-09-05 18:52:00,
2013-09-05 14:54:00,74.1,45.4,30.10,SW,223,5.0,5.0,36,0.00,,,0.00,701,Wunderground v.1.15,2013-09-05 18:54:00,
2013-09-05 14:57:00,74.2,46.2,30.10,NW,311,4.0,7.0,37,0.00,,,0.00,700,Wunderground v.1.15,2013-09-05 18:57:00,
2013-09-05 14:58:00,74.4,46.4,30.10,NW,311,5.0,8.0,37,0.00,,,0.00,696,Wunderground v.1.15,2013-09-05 18:58:00,
2013-09-05 15:03:00,74.1,43.9,30.10,WSW,238,5.0,6.0,34,0.00,,,0.00,689,Wunderground v.1.15,2013-09-05 19:03:00,
2013-09-05 15:05:00,73.8,45.2,30.10,West,274,4.0,6.0,36,0.00,,,0.00,687,Wunderground v.1.15,2013-09-05 19:05:00,
2013-09-05 15:08:00,73.8,45.2,30.09,NNW,340,5.0,6.0,36,0.00,,,0.00,684,Wunderground v.1.15,2013-09-05 19:08:00,
2013-09-05 15:09:00,73.9,45.3,30.09,West,281,4.0,6.0,36,0.00,,,0.00,682,Wunderground v.1.15,2013-09-05 19:09:00,
2013-09-05 15:12:00,74.0,45.3,30.10,WSW,243,4.0,7.0,36,0.00,,,0.00,679,Wunderground v.1.15,2013-09-05 19:12:00,
2013-09-05 15:14:00,74.1,45.4,30.09,WNW,285,4.0,7.0,36,0.00,,,0.00,686,Wunderground v.1.15,2013-09-05 19:14:00,
2013-09-05 15:15:00,74.2,46.2,30.09,SSW,193,4.0,7.0,37,0.00,,,0.00,680,Wunderground v.1.15,2013-09-05 19:15:00,
2013-09-05 15:17:00,74.4,45.0,30.10,NW,314,4.0,7.0,35,0.00,,,0.00,679,Wunderground v.1.15,2013-09-05 19:17:00,
2013-09-05 15:19:00,74.5,44.3,30.10,NW,308,4.0,7.0,34,0.00,,,0.00,671,Wunderground v.1.15,2013-09-05 19:19:00,
2013-09-05 15:20:00,74.5,45.0,30.10,NW,319,4.0,7.0,35,0.00,,,0.00,664,Wunderground v.1.15,2013-09-05 19:20:00,
2013-09-05 15:22:00,74.4,45.0,30.10,WNW,296,4.0,7.0,35,0.00,,,0.00,663,Wunderground v.1.15,2013-09-05 19:22:00,
2013-09-05 15:23:00,74.4,45.7,30.10,West,265,4.0,7.0,36,0.00,,,0.00,657,Wunderground v.1.15,2013-09-05 19:23:00,
2013-09-05 15:24:00,74.5,45.0,30.10,WNW,298,5.0,7.0,35,0.00,,,0.00,650,Wunderground v.1.15,2013-09-05 19:24:00,
2013-09-05 15:26:00,74.6,45.1,30.10,NNW,340,5.0,7.0,35,0.00,,,0.00,649,Wunderground v.1.15,2013-09-05 19:26:00,
2013-09-05 15:29:00,74.4,45.7,30.09,NNW,346,5.0,7.0,36,0.00,,,0.00,647,Wunderground v.1.15,2013-09-05 19:29:00,
2013-09-05 15:33:00,74.3,45.6,30.09,SW,225,5.0,5.0,36,0.00,,,0.00,640,Wunderground v.1.15,2013-09-05 19:33:00,
2013-09-05 15:36:00,74.1,45.4,30.09,North,355,4.0,6.0,36,0.00,,,0.00,631,Wunderground v.1.15,2013-09-05 19:36:00,
2013-09-05 15:37:00,74.1,45.4,30.09,WNW,284,4.0,6.0,36,0.00,,,0.00,629,Wunderground v.1.15,2013-09-05 19:37:00,
2013-09-05 15:40:00,74.4,45.7,30.09,SW,236,3.0,5.0,36,0.00,,,0.00,624,Wunderground v.1.15,2013-09-05 19:40:00,
2013-09-05 15:42:00,74.5,45.0,30.09,WNW,286,4.0,8.0,35,0.00,,,0.00,624,Wunderground v.1.15,2013-09-05 19:42:00,
2013-09-05 15:45:00,74.5,45.0,30.09,NNW,327,4.0,8.0,35,0.00,,,0.00,626,Wunderground v.1.15,2013-09-05 19:45:00,
2013-09-05 15:47:00,74.6,45.1,30.09,WNW,294,5.0,8.0,35,0.00,,,0.00,645,Wunderground v.1.15,2013-09-05 19:47:00,
2013-09-05 15:48:00,74.6,44.4,30.09,WNW,296,5.0,11.0,34,0.00,,,0.00,650,Wunderground v.1.15,2013-09-05 19:48:00,
2013-09-05 15:51:00,74.5,46.5,30.09,SW,225,6.0,6.0,37,0.00,,,0.00,661,Wunderground v.1.15,2013-09-05 19:51:00,
2013-09-05 15:54:00,74.5,45.8,30.09,WSW,258,5.0,6.0,36,0.00,,,0.00,668,Wunderground v.1.15,2013-09-05 19:54:00,
2013-09-05 15:56:00,74.4,45.7,30.09,West,274,6.0,6.0,36,0.00,,,0.00,673,Wunderground v.1.15,2013-09-05 19:56:00,
2013-09-05 16:00:00,74.1,46.2,30.10,West,265,5.0,5.0,37,0.00,,,0.00,643,Wunderground v.1.15,2013-09-05 20:00:00,
2013-09-05 16:01:00,74.2,46.2,30.09,NW,304,5.0,5.0,37,0.00,,,0.00,698,Wunderground v.1.15,2013-09-05 20:01:00,
2013-09-05 16:02:00,74.3,46.3,30.09,WNW,292,5.0,8.0,37,0.00,,,0.00,708,Wunderground v.1.15,2013-09-05 20:02:00,
2013-09-05 16:04:00,74.2,45.5,30.09,West,269,5.0,8.0,36,0.00,,,0.00,705,Wunderground v.1.15,2013-09-05 20:04:00,
2013-09-05 16:06:00,74.0,46.1,30.09,East,96,4.0,8.0,37,0.00,,,0.00,294,Wunderground v.1.15,2013-09-05 20:06:00,
2013-09-05 16:07:00,73.9,46.0,30.09,WNW,287,4.0,8.0,37,0.00,,,0.00,294,Wunderground v.1.15,2013-09-05 20:07:00,
2013-09-05 16:10:00,73.9,46.0,30.09,WNW,286,3.0,3.0,37,0.00,,,0.00,265,Wunderground v.1.15,2013-09-05 20:10:00,
2013-09-05 16:13:00,74.1,46.9,30.09,NW,316,3.0,8.0,38,0.00,,,0.00,605,Wunderground v.1.15,2013-09-05 20:13:00,
2013-09-05 16:15:00,74.2,46.2,30.10,WSW,251,4.0,8.0,37,0.00,,,0.00,584,Wunderground v.1.15,2013-09-05 20:15:00,
2013-09-05 16:17:00,74.3,46.3,30.10,WNW,294,4.0,8.0,37,0.00,,,0.00,575,Wunderground v.1.15,2013-09-05 20:17:00,
2013-09-05 16:18:00,74.3,46.3,30.10,NNE,31,4.0,8.0,37,0.00,,,0.00,575,Wunderground v.1.15,2013-09-05 20:18:00,
2013-09-05 16:19:00,74.3,46.3,30.10,North,11,4.0,8.0,37,0.00,,,0.00,575,Wunderground v.1.15,2013-09-05 20:19:00,
2013-09-05 16:21:00,74.3,46.3,30.10,WNW,302,5.0,5.0,37,0.00,,,0.00,587,Wunderground v.1.15,2013-09-05 20:21:00,
2013-09-05 16:23:00,74.3,45.6,30.09,NW,323,5.0,5.0,36,0.00,,,0.00,580,Wunderground v.1.15,2013-09-05 20:23:00,
2013-09-05 16:24:00,74.2,45.5,30.10,West,279,4.0,6.0,36,0.00,,,0.00,571,Wunderground v.1.15,2013-09-05 20:24:00,
2013-09-05 16:26:00,74.0,46.1,30.10,NW,309,5.0,10.0,37,0.00,,,0.00,492,Wunderground v.1.15,2013-09-05 20:26:00,
2013-09-05 16:28:00,73.8,45.9,30.10,NW,319,5.0,10.0,37,0.00,,,0.00,132,Wunderground v.1.15,2013-09-05 20:28:00,
2013-09-05 16:29:00,73.8,46.6,30.10,WSW,238,5.0,10.0,38,0.00,,,0.00,128,Wunderground v.1.15,2013-09-05 20:29:00,
2013-09-05 16:30:00,73.6,46.4,30.10,ESE,111,5.0,5.0,38,0.00,,,0.00,134,Wunderground v.1.15,2013-09-05 20:30:00,
2013-09-05 16:32:00,73.3,46.2,30.10,North,360,5.0,5.0,38,0.00,,,0.00,109,Wunderground v.1.15,2013-09-05 20:32:00,
2013-09-05 16:33:00,73.2,46.8,30.10,West,269,5.0,5.0,39,0.00,,,0.00,69,Wunderground v.1.15,2013-09-05 20:33:00,
2013-09-05 16:38:00,73.3,46.8,30.10,SW,233,4.0,5.0,39,0.00,,,0.00,56,Wunderground v.1.15,2013-09-05 20:38:00,
2013-09-05 16:39:00,73.3,46.2,30.10,NNW,348,4.0,6.0,38,0.00,,,0.00,58,Wunderground v.1.15,2013-09-05 20:39:00,
2013-09-05 16:40:00,73.2,46.1,30.10,West,261,4.0,6.0,38,0.00,,,0.00,58,Wunderground v.1.15,2013-09-05 20:40:00,
2013-09-05 16:41:00,73.1,45.3,30.10,NW,310,4.0,6.0,37,0.00,,,0.00,56,Wunderground v.1.15,2013-09-05 20:41:00,
2013-09-05 16:44:00,73.1,46.0,30.11,East,80,5.0,6.0,38,0.00,,,0.00,54,Wunderground v.1.15,2013-09-05 20:44:00,
2013-09-05 16:46:00,73.0,45.2,30.11,North,355,5.0,7.0,37,0.00,,,0.00,54,Wunderground v.1.15,2013-09-05 20:46:00,
2013-09-05 16:47:00,73.0,45.9,30.11,ESE,102,5.0,7.0,38,0.00,,,0.00,63,Wunderground v.1.15,2013-09-05 20:47:00,
2013-09-05 16:48:00,73.1,46.0,30.11,NW,325,5.0,7.0,38,0.00,,,0.00,49,Wunderground v.1.15,2013-09-05 20:48:00,
2013-09-05 16:52:00,73.3,46.2,30.11,WNW,285,4.0,8.0,38,0.00,,,0.00,42,Wunderground v.1.15,2013-09-05 20:52:00,
2013-09-05 16:54:00,73.4,46.2,30.10,WNW,303,4.0,8.0,38,0.00,,,0.00,42,Wunderground v.1.15,2013-09-05 20:54:00,
2013-09-05 16:55:00,73.3,46.8,30.11,West,268,4.0,8.0,39,0.00,,,0.00,42,Wunderground v.1.15,2013-09-05 20:55:00,
2013-09-05 16:56:00,73.4,46.9,30.11,WSW,257,4.0,8.0,39,0.00,,,0.00,42,Wunderground v.1.15,2013-09-05 20:56:00,
2013-09-05 16:59:00,73.4,45.5,30.11,WNW,299,4.0,8.0,37,0.00,,,0.00,42,Wunderground v.1.15,2013-09-05 20:59:00,
2013-09-05 17:00:00,73.4,45.5,30.11,NW,305,5.0,5.0,37,0.00,,,0.00,42,Wunderground v.1.15,2013-09-05 21:00:00,
2013-09-05 17:02:00,73.3,46.2,30.10,NNW,347,4.0,5.0,38,0.00,,,0.00,40,Wunderground v.1.15,2013-09-05 21:02:00,
2013-09-05 17:03:00,73.2,46.1,30.10,WNW,295,4.0,5.0,38,0.00,,,0.00,39,Wunderground v.1.15,2013-09-05 21:03:00,
2013-09-05 17:04:00,73.3,46.2,30.10,NW,317,4.0,5.0,38,0.00,,,0.00,40,Wunderground v.1.15,2013-09-05 21:04:00,
2013-09-05 17:08:00,73.3,45.4,30.11,WNW,285,5.0,6.0,37,0.00,,,0.00,44,Wunderground v.1.15,2013-09-05 21:08:00,
2013-09-05 17:09:00,73.2,45.4,30.11,WNW,283,5.0,8.0,37,0.00,,,0.00,37,Wunderground v.1.15,2013-09-05 21:09:00,
2013-09-05 17:11:00,72.7,44.9,30.11,WNW,295,5.0,8.0,37,0.00,,,0.00,39,Wunderground v.1.15,2013-09-05 21:11:00,
2013-09-05 17:14:00,72.6,45.5,30.11,SW,236,6.0,8.0,38,0.00,,,0.00,39,Wunderground v.1.15,2013-09-05 21:14:00,
2013-09-05 17:16:00,72.5,45.4,30.11,West,267,6.0,8.0,38,0.00,,,0.00,39,Wunderground v.1.15,2013-09-05 21:16:00,
2013-09-05 17:17:00,72.5,45.4,30.11,North,350,6.0,8.0,38,0.00,,,0.00,39,Wunderground v.1.15,2013-09-05 21:17:00,
2013-09-05 17:19:00,72.5,46.1,30.11,North,5,5.0,8.0,39,0.00,,,0.00,37,Wunderground v.1.15,2013-09-05 21:19:00,
2013-09-05 17:23:00,72.7,45.6,30.11,NW,305,4.0,5.0,38,0.00,,,0.00,39,Wunderground v.1.15,2013-09-05 21:23:00,
2013-09-05 17:26:00,72.7,44.9,30.11,North,355,4.0,6.0,37,0.00,,,0.00,35,Wunderground v.1.15,2013-09-05 21:26:00,
2013-09-05 17:27:00,72.6,45.5,30.11,NW,317,3.0,6.0,38,0.00,,,0.00,32,Wunderground v.1.15,2013-09-05 21:27:00,
2013-09-05 17:28:00,72.6,45.5,30.11,NW,326,3.0,6.0,38,0.00,,,0.00,35,Wunderground v.1.15,2013-09-05 21:28:00,
2013-09-05 17:29:00,72.6,45.5,30.11,North,360,3.0,6.0,38,0.00,,,0.00,37,Wunderground v.1.15,2013-09-05 21:29:00,
2013-09-05 17:32:00,72.5,46.1,30.11,West,277,4.0,6.0,39,0.00,,,0.00,37,Wunderground v.1.15,2013-09-05 21:32:00,
2013-09-05 17:33:00,72.5,46.1,30.11,WNW,300,4.0,6.0,39,0.00,,,0.00,35,Wunderground v.1.15,2013-09-05 21:33:00,
2013-09-05 17:35:00,72.5,46.1,30.11,NE,39,5.0,6.0,39,0.00,,,0.00,35,Wunderground v.1.15,2013-09-05 21:35:00,
2013-09-05 17:38:00,72.3,45.9,30.12,WNW,301,5.0,9.0,39,0.00,,,0.00,33,Wunderground v.1.15,2013-09-05 21:38:00,
2013-09-05 17:39:00,72.2,45.9,30.11,WNW,283,5.0,9.0,39,0.00,,,0.00,33,Wunderground v.1.15,2013-09-05 21:39:00,
2013-09-05 17:43:00,72.1,45.8,30.12,NW,306,5.0,5.0,39,0.00,,,0.00,32,Wunderground v.1.15,2013-09-05 21:43:00,
2013-09-05 17:46:00,72.1,46.4,30.12,North,5,5.0,5.0,40,0.00,,,0.00,32,Wunderground v.1.15,2013-09-05 21:46:00,
2013-09-05 17:47:00,72.1,45.8,30.12,NW,309,5.0,6.0,39,0.00,,,0.00,32,Wunderground v.1.15,2013-09-05 21:47:00,
2013-09-05 17:48:00,72.1,45.8,30.12,North,355,4.0,6.0,39,0.00,,,0.00,32,Wunderground v.1.15,2013-09-05 21:48:00,
2013-09-05 17:50:00,72.1,45.8,30.12,North,349,4.0,4.0,39,0.00,,,0.00,30,Wunderground v.1.15,2013-09-05 21:50:00,
2013-09-05 17:51:00,72.0,46.3,30.12,North,355,4.0,4.0,40,0.00,,,0.00,30,Wunderground v.1.15,2013-09-05 21:51:00,
2013-09-05 17:53:00,72.0,46.3,30.12,WNW,295,4.0,4.0,40,0.00,,,0.00,30,Wunderground v.1.15,2013-09-05 21:53:00,
2013-09-05 17:54:00,72.1,46.4,30.12,NNE,13,4.0,5.0,40,0.00,,,0.00,30,Wunderground v.1.15,2013-09-05 21:54:00,
2013-09-05 17:56:00,72.0,46.3,30.11,WNW,287,4.0,5.0,40,0.00,,,0.00,30,Wunderground v.1.15,2013-09-05 21:56:00,
2013-09-05 17:57:00,72.0,46.3,30.12,NNE,30,4.0,5.0,40,0.00,,,0.00,30,Wunderground v.1.15,2013-09-05 21:57:00,
2013-09-05 17:59:00,72.1,46.4,30.12,NW,325,4.0,9.0,40,0.00,,,0.00,30,Wunderground v.1.15,2013-09-05 21:59:00,
2013-09-05 18:01:00,72.0,45.7,30.12,WNW,298,4.0,4.0,39,0.00,,,0.00,30,Wunderground v.1.15,2013-09-05 22:01:00,
2013-09-05 18:02:00,72.0,45.7,30.12,WNW,295,4.0,7.0,39,0.00,,,0.00,28,Wunderground v.1.15,2013-09-05 22:02:00,
2013-09-05 18:04:00,71.9,45.6,30.12,NNW,336,5.0,7.0,39,0.00,,,0.00,28,Wunderground v.1.15,2013-09-05 22:04:00,
2013-09-05 18:06:00,71.9,46.3,30.12,NW,311,4.0,8.0,40,0.00,,,0.00,28,Wunderground v.1.15,2013-09-05 22:06:00,
2013-09-05 18:10:00,71.9,46.3,30.12,West,263,4.0,8.0,40,0.00,,,0.00,28,Wunderground v.1.15,2013-09-05 22:10:00,
2013-09-05 18:12:00,71.9,45.6,30.12,NW,308,4.0,4.0,39,0.00,,,0.00,28,Wunderground v.1.15,2013-09-05 22:12:00,
2013-09-05 18:13:00,71.9,45.6,30.12,West,261,3.0,4.0,39,0.00,,,0.00,26,Wunderground v.1.15,2013-09-05 22:13:00,
2013-09-05 18:17:00,71.8,45.5,30.12,North,349,3.0,5.0,39,0.00,,,0.00,26,Wunderground v.1.15,2013-09-05 22:17:00,
2013-09-05 18:19:00,71.7,45.4,30.12,WNW,286,3.0,6.0,39,0.00,,,0.00,26,Wunderground v.1.15,2013-09-05 22:19:00,
2013-09-05 18:20:00,71.7,45.4,30.12,WNW,292,3.0,6.0,39,0.00,,,0.00,26,Wunderground v.1.15,2013-09-05 22:20:00,
2013-09-05 18:26:00,71.5,45.9,30.12,NE,40,3.0,7.0,40,0.00,,,0.00,25,Wunderground v.1.15,2013-09-05 22:26:00,
2013-09-05 18:27:00,71.5,45.9,30.12,WNW,288,3.0,7.0,40,0.00,,,0.00,25,Wunderground v.1.15,2013-09-05 22:27:00,
2013-09-05 18:30:00,71.5,46.6,30.12,NNE,17,3.0,7.0,41,0.00,,,0.00,25,Wunderground v.1.15,2013-09-05 22:30:00,
2013-09-05 18:31:00,71.4,46.5,30.12,NNW,331,3.0,3.0,41,0.00,,,0.00,25,Wunderground v.1.15,2013-09-05 22:31:00,
2013-09-05 18:32:00,71.4,47.1,30.12,SSE,149,3.0,3.0,42,0.00,,,0.00,25,Wunderground v.1.15,2013-09-05 22:32:00,
2013-09-05 18:35:00,71.2,46.9,30.12,WNW,287,3.0,4.0,42,0.00,,,0.00,23,Wunderground v.1.15,2013-09-05 22:35:00,
2013-09-05 18:36:00,71.1,46.8,30.12,North,5,3.0,6.0,42,0.00,,,0.00,23,Wunderground v.1.15,2013-09-05 22:36:00,
2013-09-05 18:38:00,71.0,46.7,30.12,ESE,104,3.0,6.0,42,0.00,,,0.00,23,Wunderground v.1.15,2013-09-05 22:38:00,
2013-09-05 18:39:00,70.9,46.7,30.12,North,355,3.0,6.0,42,0.00,,,0.00,23,Wunderground v.1.15,2013-09-05 22:39:00,
2013-09-05 18:43:00,70.8,46.6,30.12,West,281,3.0,3.0,42,0.00,,,0.00,21,Wunderground v.1.15,2013-09-05 22:43:00,
2013-09-05 18:45:00,70.7,47.1,30.12,North,355,3.0,3.0,43,0.00,,,0.00,21,Wunderground v.1.15,2013-09-05 22:45:00,
2013-09-05 18:46:00,70.6,47.0,30.12,West,280,2.0,3.0,43,0.00,,,0.00,21,Wunderground v.1.15,2013-09-05 22:46:00,
2013-09-05 18:47:00,70.6,47.0,30.12,NW,304,2.0,3.0,43,0.00,,,0.00,21,Wunderground v.1.15,2013-09-05 22:47:00,
2013-09-05 18:52:00,70.5,46.9,30.12,NW,315,2.0,2.0,43,0.00,,,0.00,16,Wunderground v.1.15,2013-09-05 22:52:00,
2013-09-05 18:53:00,70.4,46.8,30.12,NNW,346,1.0,2.0,43,0.00,,,0.00,18,Wunderground v.1.15,2013-09-05 22:53:00,
2013-09-05 18:54:00,70.3,46.7,30.12,North,5,1.0,4.0,43,0.00,,,0.00,18,Wunderground v.1.15,2013-09-05 22:54:00,
2013-09-05 18:55:00,70.3,46.7,30.13,West,280,1.0,4.0,43,0.00,,,0.00,18,Wunderground v.1.15,2013-09-05 22:55:00,
2013-09-05 18:59:00,70.1,47.2,30.13,SSE,165,1.0,4.0,44,0.00,,,0.00,18,Wunderground v.1.15,2013-09-05 22:59:00,
2013-09-05 19:00:00,70.1,46.6,30.12,NNW,339,1.0,1.0,43,0.00,,,0.00,18,Wunderground v.1.15,2013-09-05 23:00:00,
2013-09-05 19:05:00,70.0,47.1,30.12,NW,310,1.0,2.0,44,0.00,,,0.00,16,Wunderground v.1.15,2013-09-05 23:05:00,
2013-09-05 19:06:00,70.1,47.2,30.12,NW,310,1.0,2.0,44,0.00,,,0.00,14,Wunderground v.1.15,2013-09-05 23:06:00,
2013-09-05 19:08:00,70.0,47.1,30.12,NNW,328,1.0,2.0,44,0.00,,,0.00,12,Wunderground v.1.15,2013-09-05 23:08:00,
2013-09-05 19:12:00,69.9,47.6,30.13,NNW,341,1.0,2.0,45,0.00,,,0.00,12,Wunderground v.1.15,2013-09-05 23:12:00,
2013-09-05 19:13:00,69.8,47.5,30.13,NW,309,1.0,2.0,45,0.00,,,0.00,11,Wunderground v.1.15,2013-09-05 23:13:00,
2013-09-05 19:15:00,69.7,46.8,30.13,NW,313,1.0,2.0,44,0.00,,,0.00,11,Wunderground v.1.15,2013-09-05 23:15:00,
2013-09-05 19:18:00,69.5,47.2,30.13,NW,313,1.0,2.0,45,0.00,,,0.00,9,Wunderground v.1.15,2013-09-05 23:18:00,
2013-09-05 19:19:00,69.4,46.5,30.13,NW,313,1.0,2.0,44,0.00,,,0.00,9,Wunderground v.1.15,2013-09-05 23:19:00,
2013-09-05 19:21:00,69.3,47.0,30.13,North,355,1.0,1.0,45,0.00,,,0.00,7,Wunderground v.1.15,2013-09-05 23:21:00,
2013-09-05 19:22:00,69.2,46.9,30.13,NNW,346,1.0,1.0,45,0.00,,,0.00,7,Wunderground v.1.15,2013-09-05 23:22:00,
2013-09-05 19:24:00,69.2,46.9,30.12,NNW,330,1.0,1.0,45,0.00,,,0.00,7,Wunderground v.1.15,2013-09-05 23:24:00,
2013-09-05 19:25:00,69.1,46.9,30.13,NW,309,1.0,1.0,45,0.00,,,0.00,5,Wunderground v.1.15,2013-09-05 23:25:00,
2013-09-05 19:26:00,69.0,46.8,30.12,NW,309,1.0,1.0,45,0.00,,,0.00,5,Wunderground v.1.15,2013-09-05 23:26:00,
2013-09-05 19:30:00,68.7,47.1,30.13,NW,311,1.0,1.0,46,0.00,,,0.00,5,Wunderground v.1.15,2013-09-05 23:30:00,
2013-09-05 19:32:00,68.6,47.0,30.13,WNW,295,1.0,2.0,46,0.00,,,0.00,0,Wunderground v.1.15,2013-09-05 23:32:00,
2013-09-05 19:33:00,68.5,46.9,30.13,West,281,1.0,2.0,46,0.00,,,0.00,0,Wunderground v.1.15,2013-09-05 23:33:00,
2013-09-05 19:34:00,68.5,46.9,30.13,WNW,283,1.0,2.0,46,0.00,,,0.00,0,Wunderground v.1.15,2013-09-05 23:34:00,
2013-09-05 19:36:00,68.3,47.3,30.13,WNW,294,1.0,2.0,47,0.00,,,0.00,0,Wunderground v.1.15,2013-09-05 23:36:00,
2013-09-05 19:41:00,68.0,47.0,30.13,WNW,292,1.0,1.0,47,0.00,,,0.00,0,Wunderground v.1.15,2013-09-05 23:41:00,
2013-09-05 19:43:00,67.9,46.9,30.13,WNW,292,1.0,1.0,47,0.00,,,0.00,0,Wunderground v.1.15,2013-09-05 23:43:00,
2013-09-05 19:44:00,67.9,46.9,30.14,WNW,292,1.0,1.0,47,0.00,,,0.00,0,Wunderground v.1.15,2013-09-05 23:44:00,
2013-09-05 19:47:00,67.7,47.3,30.14,North,351,1.0,1.0,48,0.00,,,0.00,0,Wunderground v.1.15,2013-09-05 23:47:00,
2013-09-05 19:50:00,67.6,47.2,30.14,WSW,246,1.0,1.0,48,0.00,,,0.00,0,Wunderground v.1.15,2013-09-05 23:50:00,
2013-09-05 19:52:00,67.5,47.7,30.14,WSW,258,1.0,1.0,49,0.00,,,0.00,0,Wunderground v.1.15,2013-09-05 23:52:00,
2013-09-05 19:56:00,67.3,47.5,30.14,North,355,1.0,3.0,49,0.00,,,0.00,0,Wunderground v.1.15,2013-09-05 23:56:00,
2013-09-05 19:58:00,67.3,47.5,30.14,WNW,283,1.0,3.0,49,0.00,,,0.00,0,Wunderground v.1.15,2013-09-05 23:58:00,
2013-09-05 20:01:00,67.2,47.4,30.14,NW,319,1.0,2.0,49,0.00,,,0.00,0,Wunderground v.1.15,2013-09-06 00:01:00,
2013-09-05 20:04:00,67.0,47.7,30.15,West,266,2.0,3.0,50,0.00,,,0.00,0,Wunderground v.1.15,2013-09-06 00:04:00,
2013-09-05 20:07:00,66.8,47.6,30.15,NNW,346,2.0,5.0,50,0.00,,,0.00,0,Wunderground v.1.15,2013-09-06 00:07:00,
2013-09-05 20:09:00,66.7,48.0,30.15,West,267,2.0,5.0,51,0.00,,,0.00,0,Wunderground v.1.15,2013-09-06 00:09:00,
2013-09-05 20:11:00,66.6,47.9,30.15,WNW,301,2.0,2.0,51,0.00,,,0.00,0,Wunderground v.1.15,2013-09-06 00:11:00,
2013-09-05 20:15:00,66.3,47.6,30.15,WSW,239,2.0,5.0,51,0.00,,,0.00,0,Wunderground v.1.15,2013-09-06 00:15:00,
2013-09-05 20:16:00,66.2,48.0,30.15,West,277,2.0,5.0,52,0.00,,,0.00,0,Wunderground v.1.15,2013-09-06 00:16:00,
2013-09-05 20:20:00,65.9,48.3,30.16,NE,48,2.0,2.0,53,0.00,,,0.00,0,Wunderground v.1.15,2013-09-06 00:20:00,
2013-09-05 20:21:00,65.8,48.2,30.16,North,355,2.0,5.0,53,0.00,,,0.00,0,Wunderground v.1.15,2013-09-06 00:21:00,
2013-09-05 20:22:00,65.7,48.1,30.16,NNE,16,2.0,5.0,53,0.00,,,0.00,0,Wunderground v.1.15,2013-09-06 00:22:00,
2013-09-05 20:23:00,65.7,48.1,30.16,NW,306,2.0,5.0,53,0.00,,,0.00,0,Wunderground v.1.15,2013-09-06 00:23:00,
2013-09-05 20:24:00,65.6,48.0,30.16,NNW,332,2.0,5.0,53,0.00,,,0.00,0,Wunderground v.1.15,2013-09-06 00:24:00,
2013-09-05 20:26:00,65.5,48.4,30.16,North,360,2.0,5.0,54,0.00,,,0.00,0,Wunderground v.1.15,2013-09-06 00:26:00,
2013-09-05 20:28:00,65.3,48.2,30.16,NW,325,2.0,5.0,54,0.00,,,0.00,0,Wunderground v.1.15,2013-09-06 00:28:00,
2013-09-05 20:29:00,65.3,48.2,30.16,SW,232,2.0,5.0,54,0.00,,,0.00,0,Wunderground v.1.15,2013-09-06 00:29:00,
2013-09-05 20:33:00,65.1,48.5,30.17,SW,227,2.0,3.0,55,0.00,,,0.00,0,Wunderground v.1.15,2013-09-06 00:33:00,
2013-09-05 20:35:00,65.0,48.9,30.17,NW,311,2.0,3.0,56,0.00,,,0.00,0,Wunderground v.1.15,2013-09-06 00:35:00,
2013-09-05 20:39:00,64.8,48.7,30.17,North,355,3.0,5.0,56,0.00,,,0.00,0,Wunderground v.1.15,2013-09-06 00:39:00,
2013-09-05 20:41:00,64.8,48.7,30.17,NNE,15,2.0,3.0,56,0.00,,,0.00,0,Wunderground v.1.15,2013-09-06 00:41:00,
2013-09-05 20:44:00,64.7,48.6,30.17,NW,304,2.0,5.0,56,0.00,,,0.00,0,Wunderground v.1.15,2013-09-06 00:44:00,
2013-09-05 20:46:00,64.6,49.0,30.17,North,5,2.0,5.0,57,0.00,,,0.00,0,Wunderground v.1.15,2013-09-06 00:46:00,
2013-09-05 20:47:00,64.6,49.0,30.17,NNE,15,2.0,5.0,57,0.00,,,0.00,0,Wunderground v.1.15,2013-09-06 00:47:00,
2013-09-05 20:50:00,64.4,49.3,30.17,NW,317,2.0,4.0,58,0.00,,,0.00,0,Wunderground v.1.15,2013-09-06 00:50:00,
2013-09-05 20:52:00,64.3,49.2,30.17,WNW,303,2.0,4.0,58,0.00,,,0.00,0,Wunderground v.1.15,2013-09-06 00:52:00,
2013-09-05 20:53:00,64.3,49.2,30.17,ENE,58,2.0,4.0,58,0.00,,,0.00,0,Wunderground v.1.15,2013-09-06 00:53:00,
2013-09-05 20:56:00,64.1,49.5,30.18,NW,309,3.0,4.0,59,0.00,,,0.00,0,Wunderground v.1.15,2013-09-06 00:56:00,
2013-09-05 20:57:00,64.0,49.4,30.18,NW,325,3.0,4.0,59,0.00,,,0.00,0,Wunderground v.1.15,2013-09-06 00:57:00,
2013-09-05 20:59:00,64.0,49.4,30.18,NW,315,2.0,4.0,59,0.00,,,0.00,0,Wunderground v.1.15,2013-09-06 00:59:00,
2013-09-05 21:02:00,63.8,49.2,30.18,SSW,206,2.0,4.0,59,0.00,,,0.00,0,Wunderground v.1.15,2013-09-06 01:02:00,
2013-09-05 21:03:00,63.7,49.5,30.18,SW,215,2.0,5.0,60,0.00,,,0.00,0,Wunderground v.1.15,2013-09-06 01:03:00,
2013-09-05 21:04:00,63.6,49.5,30.18,ESE,109,3.0,5.0,60,0.00,,,0.00,0,Wunderground v.1.15,2013-09-06 01:04:00,
2013-09-05 21:08:00,63.5,49.4,30.18,NW,314,3.0,5.0,60,0.00,,,0.00,0,Wunderground v.1.15,2013-09-06 01:08:00,
2013-09-05 21:10:00,63.4,49.3,30.19,NW,315,3.0,3.0,60,0.00,,,0.00,0,Wunderground v.1.15,2013-09-06 01:10:00,
2013-09-05 21:11:00,63.4,49.3,30.19,NW,315,2.0,3.0,60,0.00,,,0.00,0,Wunderground v.1.15,2013-09-06 01:11:00,
2013-09-05 21:14:00,63.4,49.3,30.19,SW,229,2.0,5.0,60,0.00,,,0.00,0,Wunderground v.1.15,2013-09-06 01:14:00,
2013-09-05 21:15:00,63.3,49.2,30.19,SSW,194,2.0,5.0,60,0.00,,,0.00,0,Wunderground v.1.15,2013-09-06 01:15:00,
2013-09-05 21:17:00,63.2,49.1,30.19,NNE,22,2.0,5.0,60,0.00,,,0.00,0,Wunderground v.1.15,2013-09-06 01:17:00,
2013-09-05 21:18:00,63.2,49.1,30.19,WSW,241,2.0,5.0,60,0.00,,,0.00,0,Wunderground v.1.15,2013-09-06 01:18:00,
2013-09-05 21:21:00,63.0,48.9,30.19,NNW,347,2.0,2.0,60,0.00,,,0.00,0,Wunderground v.1.15,2013-09-06 01:21:00,
2013-09-05 21:23:00,63.0,48.9,30.19,NNW,341,2.0,2.0,60,0.00,,,0.00,0,Wunderground v.1.15,2013-09-06 01:23:00,
2013-09-05 21:24:00,62.9,48.8,30.19,NNW,336,2.0,2.0,60,0.00,,,0.00,0,Wunderground v.1.15,2013-09-06 01:24:00,
2013-09-05 21:25:00,62.9,48.8,30.19,WNW,286,1.0,2.0,60,0.00,,,0.00,0,Wunderground v.1.15,2013-09-06 01:25:00,
2013-09-05 21:30:00,62.7,49.1,30.20,NNW,348,1.0,2.0,61,0.00,,,0.00,0,Wunderground v.1.15,2013-09-06 01:30:00,
2013-09-05 21:31:00,62.6,48.5,30.20,NNE,33,1.0,2.0,60,0.00,,,0.00,0,Wunderground v.1.15,2013-09-06 01:31:00,
2013-09-05 21:33:00,62.5,48.9,30.20,SW,227,1.0,2.0,61,0.00,,,0.00,0,Wunderground v.1.15,2013-09-06 01:33:00,
2013-09-05 21:36:00,62.3,48.7,30.20,SE,134,2.0,4.0,61,0.00,,,0.00,0,Wunderground v.1.15,2013-09-06 01:36:00,
2013-09-05 21:37:00,62.3,48.7,30.20,SSW,198,2.0,4.0,61,0.00,,,0.00,0,Wunderground v.1.15,2013-09-06 01:37:00,
2013-09-05 21:39:00,62.2,48.6,30.20,North,5,2.0,4.0,61,0.00,,,0.00,0,Wunderground v.1.15,2013-09-06 01:39:00,
2013-09-05 21:40:00,62.2,48.6,30.20,NE,44,2.0,2.0,61,0.00,,,0.00,0,Wunderground v.1.15,2013-09-06 01:40:00,
2013-09-05 21:41:00,62.1,48.5,30.20,WNW,303,2.0,2.0,61,0.00,,,0.00,0,Wunderground v.1.15,2013-09-06 01:41:00,
2013-09-05 21:46:00,61.9,47.9,30.21,NNE,31,3.0,5.0,60,0.00,,,0.00,0,Wunderground v.1.15,2013-09-06 01:46:00,
2013-09-05 21:47:00,61.8,48.2,30.21,West,263,2.0,5.0,61,0.00,,,0.00,0,Wunderground v.1.15,2013-09-06 01:47:00,
2013-09-05 21:48:00,61.8,47.8,30.21,South,186,3.0,5.0,60,0.00,,,0.00,0,Wunderground v.1.15,2013-09-06 01:48:00,
2013-09-05 21:51:00,61.7,47.7,30.21,SW,232,3.0,4.0,60,0.00,,,0.00,0,Wunderground v.1.15,2013-09-06 01:51:00,
2013-09-05 21:52:00,61.6,47.6,30.21,SW,215,3.0,5.0,60,0.00,,,0.00,0,Wunderground v.1.15,2013-09-06 01:52:00,
2013-09-05 21:55:00,61.5,47.5,30.21,NNW,334,3.0,5.0,60,0.00,,,0.00,0,Wunderground v.1.15,2013-09-06 01:55:00,
2013-09-05 21:57:00,61.5,47.5,30.21,NNW,335,3.0,5.0,60,0.00,,,0.00,0,Wunderground v.1.15,2013-09-06 01:57:00,
2013-09-05 21:58:00,61.4,47.4,30.21,West,279,2.0,5.0,60,0.00,,,0.00,0,Wunderground v.1.15,2013-09-06 01:58:00,
2013-09-05 22:01:00,61.3,47.3,30.21,NNW,341,2.0,2.0,60,0.00,,,0.00,0,Wunderground v.1.15,2013-09-06 02:01:00,
2013-09-05 22:02:00,61.3,47.3,30.21,North,355,2.0,2.0,60,0.00,,,0.00,0,Wunderground v.1.15,2013-09-06 02:02:00,
2013-09-05 22:03:00,61.3,47.3,30.21,WNW,300,2.0,2.0,60,0.00,,,0.00,0,Wunderground v.1.15,2013-09-06 02:03:00,
2013-09-05 22:07:00,61.2,47.2,30.22,West,281,2.0,2.0,60,0.00,,,0.00,0,Wunderground v.1.15,2013-09-06 02:07:00,
2013-09-05 22:08:00,61.2,47.2,30.21,NW,312,2.0,2.0,60,0.00,,,0.00,0,Wunderground v.1.15,2013-09-06 02:08:00,
2013-09-05 22:09:00,61.1,47.1,30.22,NE,42,2.0,2.0,60,0.00,,,0.00,0,Wunderground v.1.15,2013-09-06 02:09:00,
2013-09-05 22:12:00,61.0,47.0,30.22,NNW,342,2.0,5.0,60,0.00,,,0.00,0,Wunderground v.1.15,2013-09-06 02:12:00,
2013-09-05 22:14:00,61.0,47.0,30.22,NW,323,2.0,5.0,60,0.00,,,0.00,0,Wunderground v.1.15,2013-09-06 02:14:00,
2013-09-05 22:16:00,60.9,46.9,30.22,WSW,239,2.0,5.0,60,0.00,,,0.00,0,Wunderground v.1.15,2013-09-06 02:16:00,
2013-09-05 22:18:00,60.8,47.3,30.22,WNW,289,2.0,5.0,61,0.00,,,0.00,0,Wunderground v.1.15,2013-09-06 02:18:00,
2013-09-05 22:19:00,60.8,47.3,30.22,North,5,2.0,5.0,61,0.00,,,0.00,0,Wunderground v.1.15,2013-09-06 02:19:00,
2013-09-05 22:23:00,60.7,47.2,30.22,NNE,21,2.0,4.0,61,0.00,,,0.00,0,Wunderground v.1.15,2013-09-06 02:23:00,
2013-09-05 22:24:00,60.7,47.2,30.22,WSW,255,1.0,4.0,61,0.00,,,0.00,0,Wunderground v.1.15,2013-09-06 02:24:00,
2013-09-05 22:25:00,60.7,47.2,30.23,NW,325,1.0,4.0,61,0.00,,,0.00,0,Wunderground v.1.15,2013-09-06 02:25:00,
2013-09-05 22:29:00,60.5,47.0,30.22,WSW,256,1.0,4.0,61,0.00,,,0.00,0,Wunderground v.1.15,2013-09-06 02:29:00,
2013-09-05 22:30:00,60.5,47.0,30.23,North,11,2.0,2.0,61,0.00,,,0.00,0,Wunderground v.1.15,2013-09-06 02:30:00,
2013-09-05 22:33:00,60.4,46.9,30.23,WNW,290,1.0,3.0,61,0.00,,,0.00,0,Wunderground v.1.15,2013-09-06 02:33:00,
2013-09-05 22:37:00,60.2,47.1,30.23,NW,309,2.0,3.0,62,0.00,,,0.00,0,Wunderground v.1.15,2013-09-06 02:37:00,
2013-09-05 22:38:00,60.2,46.7,30.23,WSW,247,2.0,3.0,61,0.00,,,0.00,0,Wunderground v.1.15,2013-09-06 02:38:00,
2013-09-05 22:42:00,60.1,46.6,30.23,NNE,31,1.0,2.0,61,0.00,,,0.00,0,Wunderground v.1.15,2013-09-06 02:42:00,
2013-09-05 22:43:00,60.0,46.9,30.23,West,270,1.0,2.0,62,0.00,,,0.00,0,Wunderground v.1.15,2013-09-06 02:43:00,
2013-09-05 22:47:00,59.9,46.4,30.24,North,355,2.0,2.0,61,0.00,,,0.00,0,Wunderground v.1.15,2013-09-06 02:47:00,
2013-09-05 22:49:00,59.9,46.4,30.23,SW,233,1.0,2.0,61,0.00,,,0.00,0,Wunderground v.1.15,2013-09-06 02:49:00,
2013-09-05 22:50:00,59.8,46.7,30.24,NW,308,1.0,2.0,62,0.00,,,0.00,0,Wunderground v.1.15,2013-09-06 02:50:00,
2013-09-05 22:52:00,59.8,46.7,30.24,NW,304,2.0,2.0,62,0.00,,,0.00,0,Wunderground v.1.15,2013-09-06 02:52:00,
2013-09-05 22:53:00,59.8,46.7,30.24,WNW,291,2.0,3.0,62,0.00,,,0.00,0,Wunderground v.1.15,2013-09-06 02:53:00,
2013-09-05 22:56:00,59.7,46.7,30.24,NNE,12,2.0,3.0,62,0.00,,,0.00,0,Wunderground v.1.15,2013-09-06 02:56:00,
2013-09-05 22:58:00,59.6,46.6,30.24,SW,221,1.0,3.0,62,0.00,,,0.00,0,Wunderground v.1.15,2013-09-06 02:58:00,
2013-09-05 22:59:00,59.6,46.6,30.24,North,349,1.0,3.0,62,0.00,,,0.00,0,Wunderground v.1.15,2013-09-06 02:59:00,
2013-09-05 23:02:00,59.5,46.5,30.24,NW,317,1.0,3.0,62,0.00,,,0.00,0,Wunderground v.1.15,2013-09-06 03:02:00,
2013-09-05 23:04:00,59.5,46.5,30.24,North,355,1.0,3.0,62,0.00,,,0.00,0,Wunderground v.1.15,2013-09-06 03:04:00,
2013-09-05 23:07:00,59.4,46.4,30.24,WNW,295,1.0,3.0,62,0.00,,,0.00,0,Wunderground v.1.15,2013-09-06 03:07:00,
2013-09-05 23:08:00,59.3,46.3,30.24,NNW,339,1.0,3.0,62,0.00,,,0.00,0,Wunderground v.1.15,2013-09-06 03:08:00,
2013-09-05 23:11:00,59.3,46.3,30.24,SW,236,2.0,4.0,62,0.00,,,0.00,0,Wunderground v.1.15,2013-09-06 03:11:00,
2013-09-05 23:12:00,59.2,46.2,30.24,SW,222,1.0,4.0,62,0.00,,,0.00,0,Wunderground v.1.15,2013-09-06 03:12:00,
2013-09-05 23:14:00,59.2,46.2,30.25,WSW,249,2.0,4.0,62,0.00,,,0.00,0,Wunderground v.1.15,2013-09-06 03:14:00,
2013-09-05 23:15:00,59.2,46.2,30.25,NW,315,2.0,4.0,62,0.00,,,0.00,0,Wunderground v.1.15,2013-09-06 03:15:00,
2013-09-05 23:16:00,59.1,46.1,30.24,WSW,250,2.0,4.0,62,0.00,,,0.00,0,Wunderground v.1.15,2013-09-06 03:16:00,
2013-09-05 23:18:00,59.1,46.1,30.25,SSW,211,1.0,4.0,62,0.00,,,0.00,0,Wunderground v.1.15,2013-09-06 03:18:00,
2013-09-05 23:21:00,59.1,46.1,30.25,SSW,200,2.0,2.0,62,0.00,,,0.00,0,Wunderground v.1.15,2013-09-06 03:21:00,
2013-09-05 23:24:00,59.0,46.0,30.25,NNW,336,2.0,2.0,62,0.00,,,0.00,0,Wunderground v.1.15,2013-09-06 03:24:00,
2013-09-05 23:25:00,58.9,45.9,30.25,NW,312,2.0,2.0,62,0.00,,,0.00,0,Wunderground v.1.15,2013-09-06 03:25:00,
2013-09-05 23:31:00,58.7,45.7,30.25,NW,312,1.0,1.0,62,0.00,,,0.00,0,Wunderground v.1.15,2013-09-06 03:31:00,
2013-09-05 23:32:00,58.7,45.7,30.25,NW,316,1.0,1.0,62,0.00,,,0.00,0,Wunderground v.1.15,2013-09-06 03:32:00,
2013-09-05 23:33:00,58.6,45.6,30.25,NNW,328,1.0,2.0,62,0.00,,,0.00,0,Wunderground v.1.15,2013-09-06 03:33:00,
2013-09-05 23:34:00,58.6,46.0,30.25,NW,311,1.0,2.0,63,0.00,,,0.00,0,Wunderground v.1.15,2013-09-06 03:34:00,
2013-09-05 23:38:00,58.5,45.9,30.25,NW,318,1.0,2.0,63,0.00,,,0.00,0,Wunderground v.1.15,2013-09-06 03:38:00,
2013-09-05 23:39:00,58.4,45.8,30.25,WNW,297,1.0,2.0,63,0.00,,,0.00,0,Wunderground v.1.15,2013-09-06 03:39:00,
2013-09-05 23:41:00,58.3,45.8,30.25,WNW,282,2.0,2.0,63,0.00,,,0.00,0,Wunderground v.1.15,2013-09-06 03:41:00,
2013-09-05 23:45:00,58.2,45.7,30.25,NNE,13,2.0,5.0,63,0.00,,,0.00,0,Wunderground v.1.15,2013-09-06 03:45:00,
2013-09-05 23:46:00,58.2,45.7,30.25,NW,318,2.0,5.0,63,0.00,,,0.00,0,Wunderground v.1.15,2013-09-06 03:46:00,
2013-09-05 23:47:00,58.1,45.6,30.25,NW,304,2.0,5.0,63,0.00,,,0.00,0,Wunderground v.1.15,2013-09-06 03:47:00,
2013-09-05 23:49:00,58.1,45.6,30.25,NW,319,2.0,5.0,63,0.00,,,0.00,0,Wunderground v.1.15,2013-09-06 03:49:00,
2013-09-05 23:52:00,58.0,45.5,30.25,NW,311,1.0,2.0,63,0.00,,,0.00,0,Wunderground v.1.15,2013-09-06 03:52:00,
2013-09-05 23:55:00,57.9,45.0,30.25,North,355,1.0,3.0,62,0.00,,,0.00,0,Wunderground v.1.15,2013-09-06 03:55:00,
2013-09-05 23:56:00,57.9,45.0,30.25,NNW,327,1.0,3.0,62,0.00,,,0.00,0,Wunderground v.1.15,2013-09-06 03:56:00,
2013-09-05 23:57:00,57.8,44.9,30.25,NW,321,1.0,3.0,62,0.00,,,0.00,0,Wunderground v.1.15,2013-09-06 03:57:00,